Time,TemperatureF,DewpointF,PressureIn,WindDirection,WindDirectionDegrees,WindSpeedMPH,WindSpeedGustMPH,Humidity,HourlyPrecipIn,Conditions,Clouds,dailyrainin,SoftwareType,DateUTC
2013-06-04 00:00:00,62.1,56.9,29.91,NNE,15,0.0,0.0,83,0.00,,,0.00,Wunderground v.1.15,2013-06-04 04:00:00,
2013-06-04 00:01:00,62.1,56.9,29.91,NNE,15,0.0,0.0,83,0.00,,,0.00,Wunderground v.1.15,2013-06-04 04:01:00,
2013-06-04 00:02:00,62.1,56.9,29.91,NNE,15,0.0,0.0,83,0.00,,,0.00,Wunderground v.1.15,2013-06-04 04:02:00,
2013-06-04 00:03:00,62.1,56.9,29.91,NNE,15,0.0,0.0,83,0.00,,,0.00,Wunderground v.1.15,2013-06-04 04:03:00,
2013-06-04 00:04:00,62.0,57.1,29.91,NNE,15,0.0,0.0,84,0.00,,,0.00,Wunderground v.1.15,2013-06-04 04:04:00,
2013-06-04 00:05:00,62.0,57.1,29.91,NNE,15,0.0,0.0,84,0.00,,,0.00,Wunderground v.1.15,2013-06-04 04:05:00,
2013-06-04 00:08:00,62.0,57.1,29.91,NNE,15,0.0,0.0,84,0.00,,,0.00,Wunderground v.1.15,2013-06-04 04:08:00,
2013-06-04 00:09:00,62.0,57.1,29.91,NNE,15,0.0,0.0,84,0.00,,,0.00,Wunderground v.1.15,2013-06-04 04:09:00,
2013-06-04 00:10:00,62.0,57.1,29.91,NNE,15,0.0,0.0,84,0.00,,,0.00,Wunderground v.1.15,2013-06-04 04:10:00,
2013-06-04 00:11:00,62.0,57.1,29.91,NNE,15,0.0,0.0,84,0.00,,,0.00,Wunderground v.1.15,2013-06-04 04:11:00,
2013-06-04 00:14:00,61.8,56.9,29.91,NNE,15,0.0,0.0,84,0.00,,,0.00,Wunderground v.1.15,2013-06-04 04:14:00,
2013-06-04 00:15:00,61.8,56.9,29.90,NNE,15,0.0,0.0,84,0.00,,,0.00,Wunderground v.1.15,2013-06-04 04:15:00,
2013-06-04 00:18:00,61.8,56.9,29.90,NNE,15,0.0,0.0,84,0.00,,,0.00,Wunderground v.1.15,2013-06-04 04:18:00,
2013-06-04 00:20:00,61.8,56.9,29.90,NNE,15,0.0,0.0,84,0.00,,,0.00,Wunderground v.1.15,2013-06-04 04:20:00,
2013-06-04 00:22:00,61.8,56.9,29.90,NNE,15,0.0,0.0,84,0.00,,,0.00,Wunderground v.1.15,2013-06-04 04:22:00,
2013-06-04 00:23:00,61.6,56.7,29.90,NNE,15,0.0,0.0,84,0.00,,,0.00,Wunderground v.1.15,2013-06-04 04:23:00,
2013-06-04 00:26:00,61.6,56.7,29.90,NNE,15,0.0,0.0,84,0.00,,,0.00,Wunderground v.1.15,2013-06-04 04:26:00,
2013-06-04 00:27:00,61.6,56.7,29.90,NNE,15,0.0,0.0,84,0.00,,,0.00,Wunderground v.1.15,2013-06-04 04:27:00,
2013-06-04 00:30:00,61.5,56.9,29.90,NNE,15,0.0,0.0,85,0.00,,,0.00,Wunderground v.1.15,2013-06-04 04:30:00,
2013-06-04 00:32:00,61.3,56.8,29.90,NNE,15,0.0,0.0,85,0.00,,,0.00,Wunderground v.1.15,2013-06-04 04:32:00,
2013-06-04 00:34:00,61.2,57.0,29.90,NNE,15,0.0,0.0,86,0.00,,,0.00,Wunderground v.1.15,2013-06-04 04:34:00,
2013-06-04 00:35:00,61.2,57.0,29.90,NNE,15,0.0,0.0,86,0.00,,,0.00,Wunderground v.1.15,2013-06-04 04:35:00,
2013-06-04 00:36:00,61.2,57.0,29.90,NNE,15,0.0,0.0,86,0.00,,,0.00,Wunderground v.1.15,2013-06-04 04:36:00,
2013-06-04 00:39:00,61.0,56.8,29.90,NNE,15,0.0,0.0,86,0.00,,,0.00,Wunderground v.1.15,2013-06-04 04:39:00,
2013-06-04 00:40:00,61.0,56.8,29.90,NNE,15,0.0,0.0,86,0.00,,,0.00,Wunderground v.1.15,2013-06-04 04:40:00,
2013-06-04 00:43:00,60.9,56.7,29.90,NNE,15,0.0,0.0,86,0.00,,,0.00,Wunderground v.1.15,2013-06-04 04:43:00,
2013-06-04 00:44:00,60.9,56.7,29.90,NNE,15,0.0,0.0,86,0.00,,,0.00,Wunderground v.1.15,2013-06-04 04:44:00,
2013-06-04 00:46:00,60.9,56.7,29.91,NNE,15,0.0,0.0,86,0.00,,,0.00,Wunderground v.1.15,2013-06-04 04:46:00,
2013-06-04 00:49:00,60.9,56.7,29.91,NNE,15,0.0,0.0,86,0.00,,,0.00,Wunderground v.1.15,2013-06-04 04:49:00,
2013-06-04 00:50:00,60.7,56.5,29.91,NNE,15,0.0,0.0,86,0.00,,,0.00,Wunderground v.1.15,2013-06-04 04:50:00,
2013-06-04 00:53:00,60.7,56.5,29.91,NNE,15,0.0,0.0,86,0.00,,,0.00,Wunderground v.1.15,2013-06-04 04:53:00,
2013-06-04 00:54:00,60.7,56.5,29.91,NNE,15,0.0,0.0,86,0.00,,,0.00,Wunderground v.1.15,2013-06-04 04:54:00,
2013-06-04 00:56:00,60.5,56.3,29.91,NNE,15,0.0,0.0,86,0.00,,,0.00,Wunderground v.1.15,2013-06-04 04:56:00,
2013-06-04 00:57:00,60.5,56.3,29.91,NNE,15,0.0,0.0,86,0.00,,,0.00,Wunderground v.1.15,2013-06-04 04:57:00,
2013-06-04 01:01:00,60.2,56.3,29.91,NNE,15,0.0,0.0,87,0.00,,,0.00,Wunderground v.1.15,2013-06-04 05:01:00,
2013-06-04 01:02:00,60.2,56.3,29.91,NNE,15,0.0,0.0,87,0.00,,,0.00,Wunderground v.1.15,2013-06-04 05:02:00,
2013-06-04 01:03:00,60.2,56.3,29.91,NNE,15,0.0,0.0,87,0.00,,,0.00,Wunderground v.1.15,2013-06-04 05:03:00,
2013-06-04 01:04:00,60.2,56.3,29.91,NNE,15,0.0,0.0,87,0.00,,,0.00,Wunderground v.1.15,2013-06-04 05:04:00,
2013-06-04 01:05:00,60.1,56.2,29.91,NNE,15,0.0,0.0,87,0.00,,,0.00,Wunderground v.1.15,2013-06-04 05:05:00,
2013-06-04 01:06:00,60.1,56.2,29.91,NNE,15,0.0,0.0,87,0.00,,,0.00,Wunderground v.1.15,2013-06-04 05:06:00,
2013-06-04 01:08:00,60.1,56.2,29.91,NNE,15,0.0,0.0,87,0.00,,,0.00,Wunderground v.1.15,2013-06-04 05:08:00,
2013-06-04 01:09:00,59.9,56.0,29.91,NNE,15,0.0,0.0,87,0.00,,,0.00,Wunderground v.1.15,2013-06-04 05:09:00,
2013-06-04 01:11:00,59.9,56.0,29.91,NNE,15,0.0,0.0,87,0.00,,,0.00,Wunderground v.1.15,2013-06-04 05:11:00,
2013-06-04 01:13:00,59.8,55.9,29.91,NNE,15,0.0,0.0,87,0.00,,,0.00,Wunderground v.1.15,2013-06-04 05:13:00,
2013-06-04 01:14:00,59.8,56.2,29.91,NNE,15,0.0,0.0,88,0.00,,,0.00,Wunderground v.1.15,2013-06-04 05:14:00,
2013-06-04 01:17:00,59.6,56.0,29.92,NNE,15,0.0,0.0,88,0.00,,,0.00,Wunderground v.1.15,2013-06-04 05:17:00,
2013-06-04 01:18:00,59.6,56.0,29.92,NNE,15,0.0,0.0,88,0.00,,,0.00,Wunderground v.1.15,2013-06-04 05:18:00,
2013-06-04 01:20:00,59.5,55.9,29.92,NNE,15,0.0,0.0,88,0.00,,,0.00,Wunderground v.1.15,2013-06-04 05:20:00,
2013-06-04 01:21:00,59.5,55.9,29.92,NNE,15,0.0,0.0,88,0.00,,,0.00,Wunderground v.1.15,2013-06-04 05:21:00,
2013-06-04 01:22:00,59.5,56.3,29.92,NNE,15,0.0,0.0,89,0.00,,,0.00,Wunderground v.1.15,2013-06-04 05:22:00,
2013-06-04 01:23:00,59.5,56.3,29.92,NNE,15,0.0,0.0,89,0.00,,,0.00,Wunderground v.1.15,2013-06-04 05:23:00,
2013-06-04 01:26:00,59.3,56.1,29.92,NNE,15,0.0,1.0,89,0.00,,,0.00,Wunderground v.1.15,2013-06-04 05:26:00,
2013-06-04 01:28:00,59.3,56.1,29.92,NNE,15,0.0,1.0,89,0.00,,,0.00,Wunderground v.1.15,2013-06-04 05:28:00,
2013-06-04 01:29:00,59.3,56.1,29.92,NNE,15,0.0,1.0,89,0.00,,,0.00,Wunderground v.1.15,2013-06-04 05:29:00,
2013-06-04 01:31:00,59.2,56.3,29.92,NNE,15,0.0,0.0,90,0.00,,,0.00,Wunderground v.1.15,2013-06-04 05:31:00,
2013-06-04 01:32:00,59.2,56.3,29.92,NNE,15,0.0,0.0,90,0.00,,,0.00,Wunderground v.1.15,2013-06-04 05:32:00,
2013-06-04 01:35:00,59.0,56.1,29.92,NNE,15,0.0,0.0,90,0.00,,,0.00,Wunderground v.1.15,2013-06-04 05:35:00,
2013-06-04 01:38:00,59.0,56.1,29.92,NNE,15,0.0,0.0,90,0.00,,,0.00,Wunderground v.1.15,2013-06-04 05:38:00,
2013-06-04 01:40:00,58.9,56.0,29.92,NNE,15,0.0,0.0,90,0.00,,,0.00,Wunderground v.1.15,2013-06-04 05:40:00,
2013-06-04 01:41:00,58.9,56.0,29.92,NNE,15,0.0,0.0,90,0.00,,,0.00,Wunderground v.1.15,2013-06-04 05:41:00,
2013-06-04 01:45:00,58.7,55.8,29.92,NNE,15,0.0,0.0,90,0.00,,,0.00,Wunderground v.1.15,2013-06-04 05:45:00,
2013-06-04 01:46:00,58.7,55.8,29.92,NNE,15,0.0,0.0,90,0.00,,,0.00,Wunderground v.1.15,2013-06-04 05:46:00,
2013-06-04 01:47:00,58.7,55.8,29.92,NNE,15,0.0,0.0,90,0.00,,,0.00,Wunderground v.1.15,2013-06-04 05:47:00,
2013-06-04 01:49:00,58.7,55.8,29.92,NNE,15,0.0,0.0,90,0.00,,,0.00,Wunderground v.1.15,2013-06-04 05:49:00,
2013-06-04 01:52:00,58.6,55.7,29.92,NNE,15,0.0,0.0,90,0.00,,,0.00,Wunderground v.1.15,2013-06-04 05:52:00,
2013-06-04 01:53:00,58.6,56.0,29.92,NNE,15,0.0,0.0,91,0.00,,,0.00,Wunderground v.1.15,2013-06-04 05:53:00,
2013-06-04 01:54:00,58.6,56.0,29.92,NNE,15,0.0,0.0,91,0.00,,,0.00,Wunderground v.1.15,2013-06-04 05:54:00,
2013-06-04 01:57:00,58.6,55.7,29.92,NNE,15,0.0,0.0,90,0.00,,,0.00,Wunderground v.1.15,2013-06-04 05:57:00,
2013-06-04 01:58:00,58.4,55.5,29.92,NNE,15,0.0,0.0,90,0.00,,,0.00,Wunderground v.1.15,2013-06-04 05:58:00,
2013-06-04 01:59:00,58.4,55.5,29.92,NNE,15,0.0,0.0,90,0.00,,,0.00,Wunderground v.1.15,2013-06-04 05:59:00,
2013-06-04 02:00:00,58.4,55.5,29.92,NNE,15,0.0,0.0,90,0.00,,,0.00,Wunderground v.1.15,2013-06-04 06:00:00,
2013-06-04 02:02:00,58.3,55.7,29.92,NNE,15,0.0,0.0,91,0.00,,,0.00,Wunderground v.1.15,2013-06-04 06:02:00,
2013-06-04 02:05:00,58.3,55.7,29.92,NNE,15,0.0,0.0,91,0.00,,,0.00,Wunderground v.1.15,2013-06-04 06:05:00,
2013-06-04 02:07:00,58.1,55.2,29.92,NNE,15,0.0,0.0,90,0.00,,,0.00,Wunderground v.1.15,2013-06-04 06:07:00,
2013-06-04 02:12:00,58.0,55.4,29.92,NNE,15,0.0,0.0,91,0.00,,,0.00,Wunderground v.1.15,2013-06-04 06:12:00,
2013-06-04 02:13:00,57.8,55.2,29.92,NNE,15,0.0,0.0,91,0.00,,,0.00,Wunderground v.1.15,2013-06-04 06:13:00,
2013-06-04 02:14:00,57.8,55.2,29.92,NNE,15,0.0,0.0,91,0.00,,,0.00,Wunderground v.1.15,2013-06-04 06:14:00,
2013-06-04 02:17:00,57.8,55.5,29.92,NNE,15,0.0,0.0,92,0.00,,,0.00,Wunderground v.1.15,2013-06-04 06:17:00,
2013-06-04 02:19:00,57.6,55.3,29.92,NNE,15,0.0,0.0,92,0.00,,,0.00,Wunderground v.1.15,2013-06-04 06:19:00,
2013-06-04 02:20:00,57.6,55.3,29.92,NNE,15,0.0,0.0,92,0.00,,,0.00,Wunderground v.1.15,2013-06-04 06:20:00,
2013-06-04 02:21:00,57.6,55.3,29.92,NNE,15,0.0,0.0,92,0.00,,,0.00,Wunderground v.1.15,2013-06-04 06:21:00,
2013-06-04 02:25:00,57.6,55.3,29.92,NNE,15,0.0,0.0,92,0.00,,,0.00,Wunderground v.1.15,2013-06-04 06:25:00,
2013-06-04 02:27:00,57.6,55.3,29.92,NNE,15,0.0,0.0,92,0.00,,,0.00,Wunderground v.1.15,2013-06-04 06:27:00,
2013-06-04 02:32:00,57.5,55.2,29.92,NNE,15,0.0,0.0,92,0.00,,,0.00,Wunderground v.1.15,2013-06-04 06:32:00,
2013-06-04 02:33:00,57.5,55.2,29.92,NNE,15,0.0,0.0,92,0.00,,,0.00,Wunderground v.1.15,2013-06-04 06:33:00,
2013-06-04 02:34:00,57.5,55.2,29.92,NNE,15,0.0,0.0,92,0.00,,,0.00,Wunderground v.1.15,2013-06-04 06:34:00,
2013-06-04 02:35:00,57.3,55.0,29.92,NNE,15,0.0,0.0,92,0.00,,,0.00,Wunderground v.1.15,2013-06-04 06:35:00,
2013-06-04 02:39:00,57.2,55.2,29.92,NNE,15,0.0,0.0,93,0.00,,,0.00,Wunderground v.1.15,2013-06-04 06:39:00,
2013-06-04 02:40:00,57.2,55.2,29.92,NNE,15,0.0,0.0,93,0.00,,,0.00,Wunderground v.1.15,2013-06-04 06:40:00,
2013-06-04 02:43:00,57.0,55.0,29.92,NNE,15,0.0,0.0,93,0.00,,,0.00,Wunderground v.1.15,2013-06-04 06:43:00,
2013-06-04 02:45:00,57.0,55.0,29.92,NNE,15,0.0,0.0,93,0.00,,,0.00,Wunderground v.1.15,2013-06-04 06:45:00,
2013-06-04 02:47:00,57.0,55.0,29.92,NNE,15,0.0,0.0,93,0.00,,,0.00,Wunderground v.1.15,2013-06-04 06:47:00,
2013-06-04 02:50:00,57.0,55.0,29.92,NNE,15,0.0,0.0,93,0.00,,,0.00,Wunderground v.1.15,2013-06-04 06:50:00,
2013-06-04 02:51:00,57.0,55.0,29.92,NNE,15,0.0,0.0,93,0.00,,,0.00,Wunderground v.1.15,2013-06-04 06:51:00,
2013-06-04 02:52:00,57.0,55.0,29.92,NNE,15,0.0,0.0,93,0.00,,,0.00,Wunderground v.1.15,2013-06-04 06:52:00,
2013-06-04 02:55:00,57.0,55.0,29.92,NNE,15,0.0,0.0,93,0.00,,,0.00,Wunderground v.1.15,2013-06-04 06:55:00,
2013-06-04 02:56:00,57.0,55.0,29.92,NNE,15,0.0,0.0,93,0.00,,,0.00,Wunderground v.1.15,2013-06-04 06:56:00,
2013-06-04 02:58:00,56.9,54.9,29.92,NNE,15,0.0,0.0,93,0.00,,,0.00,Wunderground v.1.15,2013-06-04 06:58:00,
2013-06-04 02:59:00,56.9,54.9,29.92,NNE,15,0.0,0.0,93,0.00,,,0.00,Wunderground v.1.15,2013-06-04 06:59:00,
2013-06-04 03:01:00,56.9,54.9,29.92,NNE,15,0.0,0.0,93,0.00,,,0.00,Wunderground v.1.15,2013-06-04 07:01:00,
2013-06-04 03:02:00,56.7,54.7,29.92,NNE,15,0.0,0.0,93,0.00,,,0.00,Wunderground v.1.15,2013-06-04 07:02:00,
2013-06-04 03:03:00,56.7,54.7,29.92,NNE,15,0.0,0.0,93,0.00,,,0.00,Wunderground v.1.15,2013-06-04 07:03:00,
2013-06-04 03:04:00,56.7,54.7,29.92,NNE,15,0.0,0.0,93,0.00,,,0.00,Wunderground v.1.15,2013-06-04 07:04:00,
2013-06-04 03:08:00,56.6,54.6,29.92,NNE,15,0.0,0.0,93,0.00,,,0.00,Wunderground v.1.15,2013-06-04 07:08:00,
2013-06-04 03:09:00,56.6,54.6,29.92,NNE,15,0.0,0.0,93,0.00,,,0.00,Wunderground v.1.15,2013-06-04 07:09:00,
2013-06-04 03:10:00,56.6,54.6,29.92,NNE,15,0.0,0.0,93,0.00,,,0.00,Wunderground v.1.15,2013-06-04 07:10:00,
2013-06-04 03:13:00,56.5,54.5,29.92,NNE,15,0.0,0.0,93,0.00,,,0.00,Wunderground v.1.15,2013-06-04 07:13:00,
2013-06-04 03:14:00,56.5,54.5,29.92,NNE,15,0.0,0.0,93,0.00,,,0.00,Wunderground v.1.15,2013-06-04 07:14:00,
2013-06-04 03:19:00,56.3,54.6,29.93,NNE,15,0.0,1.0,94,0.00,,,0.00,Wunderground v.1.15,2013-06-04 07:19:00,
2013-06-04 03:20:00,56.3,54.6,29.93,NNE,15,0.0,0.0,94,0.00,,,0.00,Wunderground v.1.15,2013-06-04 07:20:00,
2013-06-04 03:22:00,56.3,54.6,29.93,NNE,15,0.0,0.0,94,0.00,,,0.00,Wunderground v.1.15,2013-06-04 07:22:00,
2013-06-04 03:24:00,56.2,54.5,29.93,NNE,15,0.0,0.0,94,0.00,,,0.00,Wunderground v.1.15,2013-06-04 07:24:00,
2013-06-04 03:25:00,56.2,54.5,29.93,NNE,15,0.0,0.0,94,0.00,,,0.00,Wunderground v.1.15,2013-06-04 07:25:00,
2013-06-04 03:28:00,56.2,54.5,29.93,NNE,15,0.0,1.0,94,0.00,,,0.00,Wunderground v.1.15,2013-06-04 07:28:00,
2013-06-04 03:30:00,56.0,54.3,29.93,NNE,15,0.0,0.0,94,0.00,,,0.00,Wunderground v.1.15,2013-06-04 07:30:00,
2013-06-04 03:34:00,56.0,54.6,29.93,NNE,15,0.0,0.0,95,0.00,,,0.00,Wunderground v.1.15,2013-06-04 07:34:00,
2013-06-04 03:35:00,55.9,54.5,29.93,NNE,15,0.0,0.0,95,0.00,,,0.00,Wunderground v.1.15,2013-06-04 07:35:00,
2013-06-04 03:36:00,55.9,54.5,29.93,NNE,15,0.0,0.0,95,0.00,,,0.00,Wunderground v.1.15,2013-06-04 07:36:00,
2013-06-04 03:39:00,55.9,54.5,29.93,NNE,15,0.0,0.0,95,0.00,,,0.00,Wunderground v.1.15,2013-06-04 07:39:00,
2013-06-04 03:42:00,55.7,54.3,29.93,NNE,15,0.0,0.0,95,0.00,,,0.00,Wunderground v.1.15,2013-06-04 07:42:00,
2013-06-04 03:43:00,55.7,54.3,29.93,NNE,15,0.0,0.0,95,0.00,,,0.00,Wunderground v.1.15,2013-06-04 07:43:00,
2013-06-04 03:45:00,55.7,54.3,29.93,NNE,15,0.0,2.0,95,0.00,,,0.00,Wunderground v.1.15,2013-06-04 07:45:00,
2013-06-04 03:46:00,55.7,54.3,29.93,NNE,15,0.0,2.0,95,0.00,,,0.00,Wunderground v.1.15,2013-06-04 07:46:00,
2013-06-04 03:47:00,55.7,54.3,29.93,NNE,15,0.0,2.0,95,0.00,,,0.00,Wunderground v.1.15,2013-06-04 07:47:00,
2013-06-04 03:48:00,55.7,54.3,29.93,NNE,15,0.0,2.0,95,0.00,,,0.00,Wunderground v.1.15,2013-06-04 07:48:00,
2013-06-04 03:50:00,55.7,54.3,29.93,NNE,15,0.0,0.0,95,0.00,,,0.00,Wunderground v.1.15,2013-06-04 07:50:00,
2013-06-04 03:52:00,55.6,54.2,29.93,NNE,15,0.0,2.0,95,0.00,,,0.00,Wunderground v.1.15,2013-06-04 07:52:00,
2013-06-04 03:53:00,55.6,54.2,29.93,NNE,15,0.0,2.0,95,0.00,,,0.00,Wunderground v.1.15,2013-06-04 07:53:00,
2013-06-04 03:56:00,55.6,54.2,29.93,NNE,15,0.0,2.0,95,0.00,,,0.00,Wunderground v.1.15,2013-06-04 07:56:00,
2013-06-04 03:58:00,55.6,54.2,29.93,NNE,15,0.0,2.0,95,0.00,,,0.00,Wunderground v.1.15,2013-06-04 07:58:00,
2013-06-04 03:59:00,55.6,54.2,29.93,NNE,15,0.0,2.0,95,0.00,,,0.00,Wunderground v.1.15,2013-06-04 07:59:00,
2013-06-04 04:00:00,55.4,54.0,29.93,NNE,15,0.0,2.0,95,0.00,,,0.00,Wunderground v.1.15,2013-06-04 08:00:00,
2013-06-04 04:01:00,55.4,54.0,29.93,NNE,15,0.0,2.0,95,0.00,,,0.00,Wunderground v.1.15,2013-06-04 08:01:00,
2013-06-04 04:04:00,55.4,54.0,29.93,NNE,15,0.0,2.0,95,0.00,,,0.00,Wunderground v.1.15,2013-06-04 08:04:00,
2013-06-04 04:09:00,55.3,53.9,29.93,NNE,15,0.0,2.0,95,0.00,,,0.00,Wunderground v.1.15,2013-06-04 08:09:00,
2013-06-04 04:10:00,55.3,53.9,29.93,NNE,15,0.0,0.0,95,0.00,,,0.00,Wunderground v.1.15,2013-06-04 08:10:00,
2013-06-04 04:12:00,55.3,53.9,29.93,NNE,15,0.0,0.0,95,0.00,,,0.00,Wunderground v.1.15,2013-06-04 08:12:00,
2013-06-04 04:14:00,55.3,53.9,29.93,NNE,15,0.0,0.0,95,0.00,,,0.00,Wunderground v.1.15,2013-06-04 08:14:00,
2013-06-04 04:18:00,55.1,53.7,29.94,NNE,15,0.0,0.0,95,0.00,,,0.00,Wunderground v.1.15,2013-06-04 08:18:00,
2013-06-04 04:19:00,55.1,53.7,29.94,NNE,15,0.0,0.0,95,0.00,,,0.00,Wunderground v.1.15,2013-06-04 08:19:00,
2013-06-04 04:21:00,55.0,53.9,29.94,NNE,15,0.0,0.0,96,0.00,,,0.00,Wunderground v.1.15,2013-06-04 08:21:00,
2013-06-04 04:22:00,55.0,53.6,29.94,NNE,15,0.0,0.0,95,0.00,,,0.00,Wunderground v.1.15,2013-06-04 08:22:00,
2013-06-04 04:24:00,54.8,53.4,29.94,NNE,15,0.0,0.0,95,0.00,,,0.00,Wunderground v.1.15,2013-06-04 08:24:00,
2013-06-04 04:25:00,54.8,53.7,29.94,NNE,15,0.0,0.0,96,0.00,,,0.00,Wunderground v.1.15,2013-06-04 08:25:00,
2013-06-04 04:28:00,54.7,53.6,29.94,NNE,15,0.0,0.0,96,0.00,,,0.00,Wunderground v.1.15,2013-06-04 08:28:00,
2013-06-04 04:32:00,54.5,53.4,29.94,NNE,15,0.0,0.0,96,0.00,,,0.00,Wunderground v.1.15,2013-06-04 08:32:00,
2013-06-04 04:33:00,54.5,53.4,29.94,NNE,15,0.0,0.0,96,0.00,,,0.00,Wunderground v.1.15,2013-06-04 08:33:00,
2013-06-04 04:34:00,54.5,53.4,29.94,NNE,15,0.0,0.0,96,0.00,,,0.00,Wunderground v.1.15,2013-06-04 08:34:00,
2013-06-04 04:35:00,54.5,53.4,29.94,NNE,15,0.0,0.0,96,0.00,,,0.00,Wunderground v.1.15,2013-06-04 08:35:00,
2013-06-04 04:37:00,54.5,53.4,29.94,NNE,15,0.0,0.0,96,0.00,,,0.00,Wunderground v.1.15,2013-06-04 08:37:00,
2013-06-04 04:40:00,54.4,53.3,29.94,NNE,15,0.0,0.0,96,0.00,,,0.00,Wunderground v.1.15,2013-06-04 08:40:00,
2013-06-04 04:41:00,54.4,53.3,29.94,NNE,15,0.0,0.0,96,0.00,,,0.00,Wunderground v.1.15,2013-06-04 08:41:00,
2013-06-04 04:43:00,54.4,53.3,29.94,NNE,15,0.0,0.0,96,0.00,,,0.00,Wunderground v.1.15,2013-06-04 08:43:00,
2013-06-04 04:46:00,54.4,53.3,29.94,NNE,15,0.0,0.0,96,0.00,,,0.00,Wunderground v.1.15,2013-06-04 08:46:00,
2013-06-04 04:48:00,54.4,53.3,29.94,NNE,15,0.0,0.0,96,0.00,,,0.00,Wunderground v.1.15,2013-06-04 08:48:00,
2013-06-04 04:51:00,54.2,53.1,29.94,NNE,15,0.0,0.0,96,0.00,,,0.00,Wunderground v.1.15,2013-06-04 08:51:00,
2013-06-04 04:52:00,54.2,53.1,29.94,NNE,15,0.0,0.0,96,0.00,,,0.00,Wunderground v.1.15,2013-06-04 08:52:00,
2013-06-04 04:54:00,54.1,53.0,29.94,NNE,15,0.0,0.0,96,0.00,,,0.00,Wunderground v.1.15,2013-06-04 08:54:00,
2013-06-04 04:56:00,54.1,53.0,29.94,NNE,15,0.0,0.0,96,0.00,,,0.00,Wunderground v.1.15,2013-06-04 08:56:00,
2013-06-04 04:57:00,53.9,52.8,29.94,NNE,15,0.0,0.0,96,0.00,,,0.00,Wunderground v.1.15,2013-06-04 08:57:00,
2013-06-04 04:58:00,53.9,52.8,29.94,NNE,15,0.0,0.0,96,0.00,,,0.00,Wunderground v.1.15,2013-06-04 08:58:00,
2013-06-04 05:02:00,53.9,52.8,29.95,NNE,15,0.0,0.0,96,0.00,,,0.00,Wunderground v.1.15,2013-06-04 09:02:00,
2013-06-04 05:03:00,53.9,52.8,29.95,NNE,15,0.0,0.0,96,0.00,,,0.00,Wunderground v.1.15,2013-06-04 09:03:00,
2013-06-04 05:04:00,53.9,52.8,29.95,NNE,15,0.0,0.0,96,0.00,,,0.00,Wunderground v.1.15,2013-06-04 09:04:00,
2013-06-04 05:05:00,54.1,53.0,29.95,NNE,15,0.0,0.0,96,0.00,,,0.00,Wunderground v.1.15,2013-06-04 09:05:00,
2013-06-04 05:08:00,54.1,53.0,29.95,NNE,15,0.0,0.0,96,0.00,,,0.00,Wunderground v.1.15,2013-06-04 09:08:00,
2013-06-04 05:11:00,54.1,53.0,29.95,NNE,15,0.0,0.0,96,0.00,,,0.00,Wunderground v.1.15,2013-06-04 09:11:00,
2013-06-04 05:12:00,54.1,53.0,29.95,NNE,15,0.0,0.0,96,0.00,,,0.00,Wunderground v.1.15,2013-06-04 09:12:00,
2013-06-04 05:13:00,54.1,53.0,29.95,NNE,15,0.0,0.0,96,0.00,,,0.00,Wunderground v.1.15,2013-06-04 09:13:00,
2013-06-04 05:17:00,53.9,52.8,29.96,NNE,15,0.0,0.0,96,0.00,,,0.00,Wunderground v.1.15,2013-06-04 09:17:00,
2013-06-04 05:19:00,53.9,52.8,29.96,NNE,15,0.0,0.0,96,0.00,,,0.00,Wunderground v.1.15,2013-06-04 09:19:00,
2013-06-04 05:20:00,53.9,52.8,29.96,NNE,15,0.0,0.0,96,0.00,,,0.00,Wunderground v.1.15,2013-06-04 09:20:00,
2013-06-04 05:21:00,53.9,52.8,29.96,NNE,15,0.0,0.0,96,0.00,,,0.00,Wunderground v.1.15,2013-06-04 09:21:00,
2013-06-04 05:26:00,54.1,53.0,29.96,NNE,15,0.0,0.0,96,0.00,,,0.00,Wunderground v.1.15,2013-06-04 09:26:00,
2013-06-04 05:27:00,54.1,53.0,29.96,NNE,15,0.0,0.0,96,0.00,,,0.00,Wunderground v.1.15,2013-06-04 09:27:00,
2013-06-04 05:28:00,54.1,53.0,29.96,NNE,15,0.0,0.0,96,0.00,,,0.00,Wunderground v.1.15,2013-06-04 09:28:00,
2013-06-04 05:30:00,53.9,52.8,29.97,NNE,15,0.0,0.0,96,0.00,,,0.00,Wunderground v.1.15,2013-06-04 09:30:00,
2013-06-04 05:33:00,53.9,52.8,29.97,NNE,15,0.0,0.0,96,0.00,,,0.00,Wunderground v.1.15,2013-06-04 09:33:00,
2013-06-04 05:34:00,53.9,53.1,29.97,NNE,15,0.0,0.0,97,0.00,,,0.00,Wunderground v.1.15,2013-06-04 09:34:00,
2013-06-04 05:39:00,53.9,52.8,29.97,NNE,15,0.0,0.0,96,0.00,,,0.00,Wunderground v.1.15,2013-06-04 09:39:00,
2013-06-04 05:40:00,53.9,52.8,29.97,NNE,15,0.0,0.0,96,0.00,,,0.00,Wunderground v.1.15,2013-06-04 09:40:00,
2013-06-04 05:42:00,53.8,52.7,29.97,NNE,15,0.0,0.0,96,0.00,,,0.00,Wunderground v.1.15,2013-06-04 09:42:00,
2013-06-04 05:46:00,53.8,52.7,29.97,NNE,15,0.0,0.0,96,0.00,,,0.00,Wunderground v.1.15,2013-06-04 09:46:00,
2013-06-04 05:47:00,53.8,52.7,29.97,NNE,15,0.0,0.0,96,0.00,,,0.00,Wunderground v.1.15,2013-06-04 09:47:00,
2013-06-04 05:49:00,53.6,52.8,29.97,NNE,15,0.0,0.0,97,0.00,,,0.00,Wunderground v.1.15,2013-06-04 09:49:00,
2013-06-04 05:52:00,53.6,52.5,29.97,NNE,15,0.0,0.0,96,0.00,,,0.00,Wunderground v.1.15,2013-06-04 09:52:00,
2013-06-04 05:53:00,53.6,52.5,29.97,NNE,15,0.0,0.0,96,0.00,,,0.00,Wunderground v.1.15,2013-06-04 09:53:00,
2013-06-04 05:56:00,53.6,52.8,29.97,NNE,15,0.0,0.0,97,0.00,,,0.00,Wunderground v.1.15,2013-06-04 09:56:00,
2013-06-04 05:57:00,53.5,52.7,29.97,NNE,15,0.0,0.0,97,0.00,,,0.00,Wunderground v.1.15,2013-06-04 09:57:00,
2013-06-04 05:58:00,53.5,52.7,29.97,NNE,15,0.0,0.0,97,0.00,,,0.00,Wunderground v.1.15,2013-06-04 09:58:00,
2013-06-04 06:02:00,53.5,52.7,29.98,NNE,15,0.0,0.0,97,0.00,,,0.00,Wunderground v.1.15,2013-06-04 10:02:00,
2013-06-04 06:03:00,53.5,52.7,29.98,NNE,15,0.0,0.0,97,0.00,,,0.00,Wunderground v.1.15,2013-06-04 10:03:00,
2013-06-04 06:05:00,53.5,52.7,29.98,NNE,15,0.0,0.0,97,0.00,,,0.00,Wunderground v.1.15,2013-06-04 10:05:00,
2013-06-04 06:07:00,53.5,52.7,29.98,NNE,15,0.0,0.0,97,0.00,,,0.00,Wunderground v.1.15,2013-06-04 10:07:00,
2013-06-04 06:08:00,53.5,52.7,29.98,NNE,15,0.0,0.0,97,0.00,,,0.00,Wunderground v.1.15,2013-06-04 10:08:00,
2013-06-04 06:11:00,53.3,52.2,29.98,NNE,15,0.0,0.0,96,0.00,,,0.00,Wunderground v.1.15,2013-06-04 10:11:00,
2013-06-04 06:13:00,53.3,52.2,29.98,NNE,15,0.0,0.0,96,0.00,,,0.00,Wunderground v.1.15,2013-06-04 10:13:00,
2013-06-04 06:16:00,53.3,52.5,29.99,NNE,15,0.0,0.0,97,0.00,,,0.00,Wunderground v.1.15,2013-06-04 10:16:00,
2013-06-04 06:18:00,53.3,52.5,29.99,NNE,15,0.0,0.0,97,0.00,,,0.00,Wunderground v.1.15,2013-06-04 10:18:00,
2013-06-04 06:19:00,53.5,52.7,29.99,NNE,15,0.0,0.0,97,0.00,,,0.00,Wunderground v.1.15,2013-06-04 10:19:00,
2013-06-04 06:23:00,53.6,52.8,29.99,NNE,15,0.0,0.0,97,0.00,,,0.00,Wunderground v.1.15,2013-06-04 10:23:00,
2013-06-04 06:24:00,53.6,52.8,29.99,NNE,15,0.0,0.0,97,0.00,,,0.00,Wunderground v.1.15,2013-06-04 10:24:00,
2013-06-04 06:25:00,53.6,52.8,29.99,NNE,15,0.0,0.0,97,0.00,,,0.00,Wunderground v.1.15,2013-06-04 10:25:00,
2013-06-04 06:29:00,53.6,52.8,29.99,NNE,15,0.0,0.0,97,0.00,,,0.00,Wunderground v.1.15,2013-06-04 10:29:00,
2013-06-04 06:30:00,53.6,52.8,29.99,NNE,15,0.0,0.0,97,0.00,,,0.00,Wunderground v.1.15,2013-06-04 10:30:00,
2013-06-04 06:32:00,53.6,52.8,29.99,NNE,15,0.0,0.0,97,0.00,,,0.00,Wunderground v.1.15,2013-06-04 10:32:00,
2013-06-04 06:33:00,53.6,52.8,29.99,NNE,15,0.0,0.0,97,0.00,,,0.00,Wunderground v.1.15,2013-06-04 10:33:00,
2013-06-04 06:37:00,53.6,52.8,29.99,NNE,15,0.0,0.0,97,0.00,,,0.00,Wunderground v.1.15,2013-06-04 10:37:00,
2013-06-04 06:39:00,53.6,52.8,29.99,NNE,15,0.0,0.0,97,0.00,,,0.00,Wunderground v.1.15,2013-06-04 10:39:00,
2013-06-04 06:40:00,53.6,52.8,29.99,NNE,15,0.0,0.0,97,0.00,,,0.00,Wunderground v.1.15,2013-06-04 10:40:00,
2013-06-04 06:42:00,53.6,52.8,29.99,NNE,15,0.0,0.0,97,0.00,,,0.00,Wunderground v.1.15,2013-06-04 10:42:00,
2013-06-04 06:48:00,53.8,53.0,30.00,NNE,15,0.0,0.0,97,0.00,,,0.00,Wunderground v.1.15,2013-06-04 10:48:00,
2013-06-04 06:49:00,53.8,53.0,30.00,NNE,15,0.0,0.0,97,0.00,,,0.00,Wunderground v.1.15,2013-06-04 10:49:00,
2013-06-04 06:50:00,53.9,53.1,30.00,NNE,15,0.0,0.0,97,0.00,,,0.00,Wunderground v.1.15,2013-06-04 10:50:00,
2013-06-04 06:51:00,53.9,53.1,30.00,NNE,15,0.0,0.0,97,0.00,,,0.00,Wunderground v.1.15,2013-06-04 10:51:00,
2013-06-04 06:55:00,54.1,53.3,30.00,NNE,15,0.0,0.0,97,0.00,,,0.00,Wunderground v.1.15,2013-06-04 10:55:00,
2013-06-04 06:56:00,54.1,53.3,30.00,NNE,15,0.0,0.0,97,0.00,,,0.00,Wunderground v.1.15,2013-06-04 10:56:00,
2013-06-04 06:58:00,54.1,53.3,30.00,NNE,15,0.0,0.0,97,0.00,,,0.00,Wunderground v.1.15,2013-06-04 10:58:00,
2013-06-04 07:01:00,54.2,53.4,30.00,NNE,15,0.0,0.0,97,0.00,,,0.00,Wunderground v.1.15,2013-06-04 11:01:00,
2013-06-04 07:02:00,54.2,53.4,30.00,NNE,15,0.0,0.0,97,0.00,,,0.00,Wunderground v.1.15,2013-06-04 11:02:00,
2013-06-04 07:03:00,54.2,53.4,30.00,NNE,15,0.0,0.0,97,0.00,,,0.00,Wunderground v.1.15,2013-06-04 11:03:00,
2013-06-04 07:04:00,54.2,53.4,30.00,NNE,15,0.0,0.0,97,0.00,,,0.00,Wunderground v.1.15,2013-06-04 11:04:00,
2013-06-04 07:08:00,54.4,53.6,30.00,SSE,153,0.0,0.0,97,0.00,,,0.00,Wunderground v.1.15,2013-06-04 11:08:00,
2013-06-04 07:09:00,54.5,53.7,30.00,SSE,153,0.0,0.0,97,0.00,,,0.00,Wunderground v.1.15,2013-06-04 11:09:00,
2013-06-04 07:10:00,54.5,53.7,30.00,SSE,153,0.0,0.0,97,0.00,,,0.00,Wunderground v.1.15,2013-06-04 11:10:00,
2013-06-04 07:12:00,54.5,53.7,30.00,SSE,153,0.0,0.0,97,0.00,,,0.00,Wunderground v.1.15,2013-06-04 11:12:00,
2013-06-04 07:15:00,54.7,53.9,30.00,SSE,153,0.0,0.0,97,0.00,,,0.00,Wunderground v.1.15,2013-06-04 11:15:00,
2013-06-04 07:16:00,54.8,54.0,30.00,SSE,153,0.0,0.0,97,0.00,,,0.00,Wunderground v.1.15,2013-06-04 11:16:00,
2013-06-04 07:17:00,54.8,54.0,30.00,SSE,153,0.0,0.0,97,0.00,,,0.00,Wunderground v.1.15,2013-06-04 11:17:00,
2013-06-04 07:18:00,54.8,54.0,30.00,SSE,153,0.0,0.0,97,0.00,,,0.00,Wunderground v.1.15,2013-06-04 11:18:00,
2013-06-04 07:19:00,55.0,54.2,30.00,SSE,153,0.0,0.0,97,0.00,,,0.00,Wunderground v.1.15,2013-06-04 11:19:00,
2013-06-04 07:21:00,55.0,54.2,30.00,SSE,153,0.0,0.0,97,0.00,,,0.00,Wunderground v.1.15,2013-06-04 11:21:00,
2013-06-04 07:22:00,55.1,54.3,30.00,SSE,153,0.0,0.0,97,0.00,,,0.00,Wunderground v.1.15,2013-06-04 11:22:00,
2013-06-04 07:24:00,55.3,54.5,30.00,SSE,153,0.0,0.0,97,0.00,,,0.00,Wunderground v.1.15,2013-06-04 11:24:00,
2013-06-04 07:25:00,55.3,54.5,30.00,SSE,153,0.0,0.0,97,0.00,,,0.00,Wunderground v.1.15,2013-06-04 11:25:00,
2013-06-04 07:26:00,55.3,54.5,30.00,SSE,153,0.0,0.0,97,0.00,,,0.00,Wunderground v.1.15,2013-06-04 11:26:00,
2013-06-04 07:27:00,55.4,54.6,30.00,SSE,153,0.0,0.0,97,0.00,,,0.00,Wunderground v.1.15,2013-06-04 11:27:00,
2013-06-04 07:30:00,55.6,54.8,30.01,SSE,153,0.0,0.0,97,0.00,,,0.00,Wunderground v.1.15,2013-06-04 11:30:00,
2013-06-04 07:31:00,55.7,54.9,30.01,SSE,153,0.0,0.0,97,0.00,,,0.00,Wunderground v.1.15,2013-06-04 11:31:00,
2013-06-04 07:33:00,55.9,55.1,30.01,SSE,153,0.0,0.0,97,0.00,,,0.00,Wunderground v.1.15,2013-06-04 11:33:00,
2013-06-04 07:35:00,56.0,54.9,30.01,East,101,0.0,1.0,96,0.00,,,0.00,Wunderground v.1.15,2013-06-04 11:35:00,
2013-06-04 07:37:00,56.0,54.9,30.01,East,98,0.0,3.0,96,0.00,,,0.00,Wunderground v.1.15,2013-06-04 11:37:00,
2013-06-04 07:38:00,56.2,55.1,30.01,East,98,1.0,3.0,96,0.00,,,0.00,Wunderground v.1.15,2013-06-04 11:38:00,
2013-06-04 07:43:00,56.5,55.1,30.01,East,98,1.0,1.0,95,0.00,,,0.00,Wunderground v.1.15,2013-06-04 11:43:00,
2013-06-04 07:46:00,56.6,54.9,30.01,East,98,0.0,2.0,94,0.00,,,0.00,Wunderground v.1.15,2013-06-04 11:46:00,
2013-06-04 07:47:00,56.6,54.6,30.01,East,98,1.0,2.0,93,0.00,,,0.00,Wunderground v.1.15,2013-06-04 11:47:00,
2013-06-04 07:50:00,56.7,54.1,30.01,East,84,1.0,1.0,91,0.00,,,0.00,Wunderground v.1.15,2013-06-04 11:50:00,
2013-06-04 07:52:00,56.9,54.0,30.01,NNE,15,1.0,2.0,90,0.00,,,0.00,Wunderground v.1.15,2013-06-04 11:52:00,
2013-06-04 07:53:00,57.0,54.1,30.01,NNE,18,1.0,5.0,90,0.00,,,0.00,Wunderground v.1.15,2013-06-04 11:53:00,
2013-06-04 07:58:00,57.3,53.5,30.01,North,355,2.0,5.0,87,0.00,,,0.00,Wunderground v.1.15,2013-06-04 11:58:00,
2013-06-04 07:59:00,57.3,53.1,30.01,North,11,2.0,5.0,86,0.00,,,0.00,Wunderground v.1.15,2013-06-04 11:59:00,
2013-06-04 08:01:00,57.5,53.0,30.01,WNW,299,3.0,3.0,85,0.00,,,0.00,Wunderground v.1.15,2013-06-04 12:01:00,
2013-06-04 08:02:00,57.5,52.7,30.01,ENE,65,3.0,3.0,84,0.00,,,0.00,Wunderground v.1.15,2013-06-04 12:02:00,
2013-06-04 08:05:00,58.0,52.9,30.01,NNE,15,2.0,3.0,83,0.00,,,0.00,Wunderground v.1.15,2013-06-04 12:05:00,
2013-06-04 08:06:00,58.0,52.9,30.01,NNE,15,2.0,3.0,83,0.00,,,0.00,Wunderground v.1.15,2013-06-04 12:06:00,
2013-06-04 08:07:00,58.1,52.6,30.01,NNE,15,2.0,3.0,82,0.00,,,0.00,Wunderground v.1.15,2013-06-04 12:07:00,
2013-06-04 08:08:00,58.1,52.6,30.01,NNE,15,2.0,3.0,82,0.00,,,0.00,Wunderground v.1.15,2013-06-04 12:08:00,
2013-06-04 08:10:00,58.3,52.5,30.01,NNE,15,2.0,6.0,81,0.00,,,0.00,Wunderground v.1.15,2013-06-04 12:10:00,
2013-06-04 08:11:00,58.4,52.6,30.01,North,355,2.0,6.0,81,0.00,,,0.00,Wunderground v.1.15,2013-06-04 12:11:00,
2013-06-04 08:12:00,58.4,52.6,30.01,NNW,327,2.0,6.0,81,0.00,,,0.00,Wunderground v.1.15,2013-06-04 12:12:00,
2013-06-04 08:14:00,58.7,52.5,30.01,NNW,341,2.0,6.0,80,0.00,,,0.00,Wunderground v.1.15,2013-06-04 12:14:00,
2013-06-04 08:17:00,58.9,52.4,30.03,WNW,300,2.0,6.0,79,0.00,,,0.00,Wunderground v.1.15,2013-06-04 12:17:00,
2013-06-04 08:20:00,59.0,52.1,30.03,NNW,342,2.0,3.0,78,0.00,,,0.00,Wunderground v.1.15,2013-06-04 12:20:00,
2013-06-04 08:22:00,59.2,51.6,30.03,NNW,342,2.0,3.0,76,0.00,,,0.00,Wunderground v.1.15,2013-06-04 12:22:00,
2013-06-04 08:23:00,59.3,52.1,30.03,NNW,342,2.0,3.0,77,0.00,,,0.00,Wunderground v.1.15,2013-06-04 12:23:00,
2013-06-04 08:27:00,59.5,51.9,30.03,NNE,22,2.0,4.0,76,0.00,,,0.00,Wunderground v.1.15,2013-06-04 12:27:00,
2013-06-04 08:28:00,59.6,51.7,30.03,North,355,2.0,4.0,75,0.00,,,0.00,Wunderground v.1.15,2013-06-04 12:28:00,
2013-06-04 08:29:00,59.6,51.7,30.03,WSW,257,2.0,4.0,75,0.00,,,0.00,Wunderground v.1.15,2013-06-04 12:29:00,
2013-06-04 08:33:00,59.9,51.6,30.03,NNW,333,3.0,3.0,74,0.00,,,0.00,Wunderground v.1.15,2013-06-04 12:33:00,
2013-06-04 08:34:00,59.9,51.2,30.03,NE,37,3.0,3.0,73,0.00,,,0.00,Wunderground v.1.15,2013-06-04 12:34:00,
2013-06-04 08:35:00,60.1,51.0,30.03,WNW,290,3.0,6.0,72,0.00,,,0.00,Wunderground v.1.15,2013-06-04 12:35:00,
2013-06-04 08:36:00,60.1,51.0,30.03,NNW,344,3.0,6.0,72,0.00,,,0.00,Wunderground v.1.15,2013-06-04 12:36:00,
2013-06-04 08:39:00,60.2,51.1,30.03,WNW,299,3.0,6.0,72,0.00,,,0.00,Wunderground v.1.15,2013-06-04 12:39:00,
2013-06-04 08:40:00,60.4,51.0,30.03,NNW,331,3.0,3.0,71,0.00,,,0.00,Wunderground v.1.15,2013-06-04 12:40:00,
2013-06-04 08:42:00,60.5,50.7,30.03,North,5,3.0,3.0,70,0.00,,,0.00,Wunderground v.1.15,2013-06-04 12:42:00,
2013-06-04 08:43:00,60.5,51.0,30.03,North,360,3.0,5.0,71,0.00,,,0.00,Wunderground v.1.15,2013-06-04 12:43:00,
2013-06-04 08:44:00,60.7,50.9,30.03,NW,318,3.0,5.0,70,0.00,,,0.00,Wunderground v.1.15,2013-06-04 12:44:00,
2013-06-04 08:47:00,60.7,50.5,30.03,NNW,329,3.0,5.0,69,0.00,,,0.00,Wunderground v.1.15,2013-06-04 12:47:00,
2013-06-04 08:48:00,60.9,50.7,30.03,NNW,329,3.0,5.0,69,0.00,,,0.00,Wunderground v.1.15,2013-06-04 12:48:00,
2013-06-04 08:50:00,61.0,51.1,30.03,North,10,3.0,3.0,70,0.00,,,0.00,Wunderground v.1.15,2013-06-04 12:50:00,
2013-06-04 08:52:00,61.0,50.4,30.03,NNE,13,3.0,4.0,68,0.00,,,0.00,Wunderground v.1.15,2013-06-04 12:52:00,
2013-06-04 08:57:00,61.2,50.2,30.03,North,360,3.0,7.0,67,0.00,,,0.00,Wunderground v.1.15,2013-06-04 12:57:00,
2013-06-04 08:58:00,61.3,50.6,30.03,NNW,346,3.0,7.0,68,0.00,,,0.00,Wunderground v.1.15,2013-06-04 12:58:00,
2013-06-04 08:59:00,61.3,50.6,30.03,NNW,342,3.0,7.0,68,0.00,,,0.00,Wunderground v.1.15,2013-06-04 12:59:00,
2013-06-04 09:01:00,61.5,50.4,30.04,NNW,335,3.0,5.0,67,0.00,,,0.00,Wunderground v.1.15,2013-06-04 13:01:00,
2013-06-04 09:02:00,61.5,50.4,30.04,West,279,3.0,5.0,67,0.00,,,0.00,Wunderground v.1.15,2013-06-04 13:02:00,
2013-06-04 09:03:00,61.5,50.4,30.04,WNW,285,3.0,5.0,67,0.00,,,0.00,Wunderground v.1.15,2013-06-04 13:03:00,
2013-06-04 09:04:00,61.5,50.4,30.04,NW,309,3.0,7.0,67,0.00,,,0.00,Wunderground v.1.15,2013-06-04 13:04:00,
2013-06-04 09:05:00,61.5,50.0,30.04,North,5,4.0,10.0,66,0.00,,,0.00,Wunderground v.1.15,2013-06-04 13:05:00,
2013-06-04 09:09:00,61.5,50.0,30.04,NNE,13,4.0,10.0,66,0.00,,,0.00,Wunderground v.1.15,2013-06-04 13:09:00,
2013-06-04 09:12:00,61.5,50.0,30.04,NNW,348,4.0,5.0,66,0.00,,,0.00,Wunderground v.1.15,2013-06-04 13:12:00,
2013-06-04 09:14:00,61.6,50.1,30.04,NNW,344,4.0,5.0,66,0.00,,,0.00,Wunderground v.1.15,2013-06-04 13:14:00,
2013-06-04 09:15:00,61.8,50.7,30.05,NNE,13,4.0,9.0,67,0.00,,,0.00,Wunderground v.1.15,2013-06-04 13:15:00,
2013-06-04 09:17:00,62.0,50.5,30.05,North,351,4.0,9.0,66,0.00,,,0.00,Wunderground v.1.15,2013-06-04 13:17:00,
2013-06-04 09:18:00,62.0,50.5,30.05,NW,321,4.0,9.0,66,0.00,,,0.00,Wunderground v.1.15,2013-06-04 13:18:00,
2013-06-04 09:20:00,62.1,50.6,30.05,NNW,332,4.0,4.0,66,0.00,,,0.00,Wunderground v.1.15,2013-06-04 13:20:00,
2013-06-04 09:21:00,62.3,50.8,30.05,NNW,327,4.0,4.0,66,0.00,,,0.00,Wunderground v.1.15,2013-06-04 13:21:00,
2013-06-04 09:23:00,62.3,50.4,30.05,WNW,302,4.0,7.0,65,0.00,,,0.00,Wunderground v.1.15,2013-06-04 13:23:00,
2013-06-04 09:26:00,62.4,50.9,30.05,NW,310,3.0,7.0,66,0.00,,,0.00,Wunderground v.1.15,2013-06-04 13:26:00,
2013-06-04 09:28:00,62.4,50.1,30.05,NNW,333,3.0,7.0,64,0.00,,,0.00,Wunderground v.1.15,2013-06-04 13:28:00,
2013-06-04 09:29:00,62.4,50.5,30.05,North,351,3.0,7.0,65,0.00,,,0.00,Wunderground v.1.15,2013-06-04 13:29:00,
2013-06-04 09:30:00,62.4,50.5,30.05,NE,35,3.0,3.0,65,0.00,,,0.00,Wunderground v.1.15,2013-06-04 13:30:00,
2013-06-04 09:32:00,62.6,50.7,30.05,NW,325,3.0,5.0,65,0.00,,,0.00,Wunderground v.1.15,2013-06-04 13:32:00,
2013-06-04 09:35:00,62.7,51.2,30.05,North,355,3.0,5.0,66,0.00,,,0.00,Wunderground v.1.15,2013-06-04 13:35:00,
2013-06-04 09:37:00,62.9,50.5,30.05,North,355,3.0,5.0,64,0.00,,,0.00,Wunderground v.1.15,2013-06-04 13:37:00,
2013-06-04 09:38:00,62.9,50.5,30.05,NNW,346,2.0,5.0,64,0.00,,,0.00,Wunderground v.1.15,2013-06-04 13:38:00,
2013-06-04 09:39:00,62.9,51.0,30.05,NNW,346,2.0,5.0,65,0.00,,,0.00,Wunderground v.1.15,2013-06-04 13:39:00,
2013-06-04 09:44:00,63.4,51.0,30.05,NNW,348,2.0,4.0,64,0.00,,,0.00,Wunderground v.1.15,2013-06-04 13:44:00,
2013-06-04 09:45:00,63.4,51.0,30.06,NNW,338,2.0,4.0,64,0.00,,,0.00,Wunderground v.1.15,2013-06-04 13:45:00,
2013-06-04 09:49:00,63.7,51.3,30.06,NNW,335,1.0,4.0,64,0.00,,,0.00,Wunderground v.1.15,2013-06-04 13:49:00,
2013-06-04 09:50:00,64.0,52.8,30.06,NNW,327,1.0,4.0,67,0.00,,,0.00,Wunderground v.1.15,2013-06-04 13:50:00,
2013-06-04 09:54:00,64.3,51.0,30.06,NNE,13,1.0,7.0,62,0.00,,,0.00,Wunderground v.1.15,2013-06-04 13:54:00,
2013-06-04 09:55:00,64.5,51.6,30.06,North,355,1.0,7.0,63,0.00,,,0.00,Wunderground v.1.15,2013-06-04 13:55:00,
2013-06-04 09:57:00,64.5,51.2,30.06,NE,40,2.0,7.0,62,0.00,,,0.00,Wunderground v.1.15,2013-06-04 13:57:00,
2013-06-04 10:02:00,64.7,52.2,30.05,NNW,334,4.0,7.0,64,0.00,,,0.00,Wunderground v.1.15,2013-06-04 14:02:00,
2013-06-04 10:03:00,64.7,52.2,30.05,North,351,4.0,7.0,64,0.00,,,0.00,Wunderground v.1.15,2013-06-04 14:03:00,
2013-06-04 10:04:00,64.8,51.5,30.05,NNW,346,4.0,7.0,62,0.00,,,0.00,Wunderground v.1.15,2013-06-04 14:04:00,
2013-06-04 10:05:00,64.8,51.9,30.05,WNW,282,4.0,7.0,63,0.00,,,0.00,Wunderground v.1.15,2013-06-04 14:05:00,
2013-06-04 10:08:00,64.8,50.6,30.05,WNW,287,4.0,7.0,60,0.00,,,0.00,Wunderground v.1.15,2013-06-04 14:08:00,
2013-06-04 10:09:00,64.8,51.0,30.05,WNW,287,4.0,7.0,61,0.00,,,0.00,Wunderground v.1.15,2013-06-04 14:09:00,
2013-06-04 10:12:00,65.0,52.5,30.05,ENE,59,3.0,4.0,64,0.00,,,0.00,Wunderground v.1.15,2013-06-04 14:12:00,
2013-06-04 10:14:00,65.0,51.2,30.05,WNW,297,2.0,6.0,61,0.00,,,0.00,Wunderground v.1.15,2013-06-04 14:14:00,
2013-06-04 10:15:00,65.0,51.2,30.05,NNE,28,3.0,6.0,61,0.00,,,0.00,Wunderground v.1.15,2013-06-04 14:15:00,
2013-06-04 10:17:00,65.0,51.7,30.05,NW,319,3.0,6.0,62,0.00,,,0.00,Wunderground v.1.15,2013-06-04 14:17:00,
2013-06-04 10:19:00,65.2,51.8,30.05,NW,324,3.0,6.0,62,0.00,,,0.00,Wunderground v.1.15,2013-06-04 14:19:00,
2013-06-04 10:21:00,65.2,51.0,30.05,NNW,330,3.0,4.0,60,0.00,,,0.00,Wunderground v.1.15,2013-06-04 14:21:00,
2013-06-04 10:23:00,65.0,50.3,30.05,North,5,3.0,4.0,59,0.00,,,0.00,Wunderground v.1.15,2013-06-04 14:23:00,
2013-06-04 10:25:00,65.0,51.2,30.05,North,5,2.0,4.0,61,0.00,,,0.00,Wunderground v.1.15,2013-06-04 14:25:00,
2013-06-04 10:26:00,65.0,51.2,30.05,North,5,2.0,4.0,61,0.00,,,0.00,Wunderground v.1.15,2013-06-04 14:26:00,
2013-06-04 10:27:00,65.0,51.2,30.05,North,5,2.0,4.0,61,0.00,,,0.00,Wunderground v.1.15,2013-06-04 14:27:00,
2013-06-04 10:30:00,65.2,51.4,30.05,WNW,295,1.0,3.0,61,0.00,,,0.00,Wunderground v.1.15,2013-06-04 14:30:00,
2013-06-04 10:31:00,65.2,51.0,30.05,WNW,297,1.0,3.0,60,0.00,,,0.00,Wunderground v.1.15,2013-06-04 14:31:00,
2013-06-04 10:33:00,65.3,50.1,30.05,North,355,1.0,3.0,58,0.00,,,0.00,Wunderground v.1.15,2013-06-04 14:33:00,
2013-06-04 10:35:00,65.6,51.3,30.05,NNE,17,2.0,8.0,60,0.00,,,0.00,Wunderground v.1.15,2013-06-04 14:35:00,
2013-06-04 10:39:00,66.0,50.8,30.05,West,279,3.0,8.0,58,0.00,,,0.00,Wunderground v.1.15,2013-06-04 14:39:00,
2013-06-04 10:40:00,66.0,50.8,30.05,West,279,3.0,3.0,58,0.00,,,0.00,Wunderground v.1.15,2013-06-04 14:40:00,
2013-06-04 10:44:00,66.0,49.8,30.05,NNW,335,3.0,5.0,56,0.00,,,0.00,Wunderground v.1.15,2013-06-04 14:44:00,
2013-06-04 10:47:00,66.1,49.0,30.05,North,9,3.0,6.0,54,0.00,,,0.00,Wunderground v.1.15,2013-06-04 14:47:00,
2013-06-04 10:48:00,66.3,50.1,30.05,North,5,3.0,6.0,56,0.00,,,0.00,Wunderground v.1.15,2013-06-04 14:48:00,
2013-06-04 10:49:00,66.3,51.1,30.05,NE,35,2.0,6.0,58,0.00,,,0.00,Wunderground v.1.15,2013-06-04 14:49:00,
2013-06-04 10:51:00,66.4,48.2,30.05,NNE,14,3.0,6.0,52,0.00,,,0.00,Wunderground v.1.15,2013-06-04 14:51:00,
2013-06-04 10:55:00,66.6,48.9,30.05,NNW,338,3.0,6.0,53,0.00,,,0.00,Wunderground v.1.15,2013-06-04 14:55:00,
2013-06-04 10:56:00,66.6,48.9,30.05,NNW,338,3.0,6.0,53,0.00,,,0.00,Wunderground v.1.15,2013-06-04 14:56:00,
2013-06-04 10:57:00,66.6,49.4,30.05,NNW,338,3.0,6.0,54,0.00,,,0.00,Wunderground v.1.15,2013-06-04 14:57:00,
2013-06-04 10:59:00,66.6,49.4,30.05,NW,313,3.0,6.0,54,0.00,,,0.00,Wunderground v.1.15,2013-06-04 14:59:00,
2013-06-04 11:01:00,66.4,49.2,30.05,WNW,294,2.0,2.0,54,0.00,,,0.00,Wunderground v.1.15,2013-06-04 15:01:00,
2013-06-04 11:03:00,66.8,49.1,30.05,WNW,302,1.0,2.0,53,0.00,,,0.00,Wunderground v.1.15,2013-06-04 15:03:00,
2013-06-04 11:05:00,66.9,49.7,30.05,WSW,251,1.0,2.0,54,0.00,,,0.00,Wunderground v.1.15,2013-06-04 15:05:00,
2013-06-04 11:06:00,67.1,49.9,30.05,WSW,251,1.0,2.0,54,0.00,,,0.00,Wunderground v.1.15,2013-06-04 15:06:00,
2013-06-04 11:07:00,67.1,51.4,30.05,North,5,1.0,3.0,57,0.00,,,0.00,Wunderground v.1.15,2013-06-04 15:07:00,
2013-06-04 11:10:00,67.3,49.1,30.05,NNE,17,2.0,4.0,52,0.00,,,0.00,Wunderground v.1.15,2013-06-04 15:10:00,
2013-06-04 11:12:00,67.3,48.5,30.05,NNE,16,2.0,7.0,51,0.00,,,0.00,Wunderground v.1.15,2013-06-04 15:12:00,
2013-06-04 11:13:00,67.3,48.0,30.05,NNE,20,3.0,7.0,50,0.00,,,0.00,Wunderground v.1.15,2013-06-04 15:13:00,
2013-06-04 11:16:00,67.3,49.1,30.05,North,360,2.0,7.0,52,0.00,,,0.00,Wunderground v.1.15,2013-06-04 15:16:00,
2013-06-04 11:17:00,67.4,49.2,30.05,NNW,338,3.0,7.0,52,0.00,,,0.00,Wunderground v.1.15,2013-06-04 15:17:00,
2013-06-04 11:19:00,67.6,49.3,30.05,West,278,3.0,7.0,52,0.00,,,0.00,Wunderground v.1.15,2013-06-04 15:19:00,
2013-06-04 11:22:00,67.9,49.6,30.05,North,9,2.0,2.0,52,0.00,,,0.00,Wunderground v.1.15,2013-06-04 15:22:00,
2013-06-04 11:25:00,68.1,47.1,30.05,NW,315,2.0,2.0,47,0.00,,,0.00,Wunderground v.1.15,2013-06-04 15:25:00,
2013-06-04 11:26:00,68.3,46.7,30.05,WNW,298,2.0,2.0,46,0.00,,,0.00,Wunderground v.1.15,2013-06-04 15:26:00,
2013-06-04 11:27:00,68.3,47.3,30.05,NW,306,2.0,2.0,47,0.00,,,0.00,Wunderground v.1.15,2013-06-04 15:27:00,
2013-06-04 11:29:00,68.4,48.5,30.05,NW,307,1.0,4.0,49,0.00,,,0.00,Wunderground v.1.15,2013-06-04 15:29:00,
2013-06-04 11:32:00,68.1,47.7,30.05,WNW,290,2.0,3.0,48,0.00,,,0.00,Wunderground v.1.15,2013-06-04 15:32:00,
2013-06-04 11:34:00,67.9,48.6,30.05,WNW,287,2.0,3.0,50,0.00,,,0.00,Wunderground v.1.15,2013-06-04 15:34:00,
2013-06-04 11:36:00,67.6,47.8,30.05,WNW,288,2.0,3.0,49,0.00,,,0.00,Wunderground v.1.15,2013-06-04 15:36:00,
2013-06-04 11:39:00,67.3,49.1,30.05,WNW,288,2.0,3.0,52,0.00,,,0.00,Wunderground v.1.15,2013-06-04 15:39:00,
2013-06-04 11:41:00,67.3,46.9,30.05,WNW,288,2.0,2.0,48,0.00,,,0.00,Wunderground v.1.15,2013-06-04 15:41:00,
2013-06-04 11:43:00,67.3,47.5,30.05,WNW,296,2.0,4.0,49,0.00,,,0.00,Wunderground v.1.15,2013-06-04 15:43:00,
2013-06-04 11:47:00,67.4,47.6,30.06,NNW,339,2.0,5.0,49,0.00,,,0.00,Wunderground v.1.15,2013-06-04 15:47:00,
2013-06-04 11:48:00,67.4,46.5,30.06,NNW,338,1.0,5.0,47,0.00,,,0.00,Wunderground v.1.15,2013-06-04 15:48:00,
2013-06-04 11:49:00,67.4,46.5,30.06,NNW,341,1.0,5.0,47,0.00,,,0.00,Wunderground v.1.15,2013-06-04 15:49:00,
2013-06-04 11:52:00,67.8,46.8,30.06,NNW,348,2.0,6.0,47,0.00,,,0.00,Wunderground v.1.15,2013-06-04 15:52:00,
2013-06-04 11:54:00,67.9,46.9,30.06,North,355,2.0,6.0,47,0.00,,,0.00,Wunderground v.1.15,2013-06-04 15:54:00,
2013-06-04 11:58:00,68.4,49.0,30.06,North,360,2.0,6.0,50,0.00,,,0.00,Wunderground v.1.15,2013-06-04 15:58:00,
2013-06-04 12:01:00,68.4,46.2,30.05,SE,132,3.0,3.0,45,0.00,,,0.00,Wunderground v.1.15,2013-06-04 16:01:00,
2013-06-04 12:02:00,68.6,48.7,30.05,NE,46,2.0,4.0,49,0.00,,,0.00,Wunderground v.1.15,2013-06-04 16:02:00,
2013-06-04 12:03:00,68.8,48.9,30.05,North,5,2.0,4.0,49,0.00,,,0.00,Wunderground v.1.15,2013-06-04 16:03:00,
2013-06-04 12:05:00,68.6,47.0,30.05,West,277,2.0,5.0,46,0.00,,,0.00,Wunderground v.1.15,2013-06-04 16:05:00,
2013-06-04 12:07:00,68.6,48.7,30.05,WSW,247,2.0,5.0,49,0.00,,,0.00,Wunderground v.1.15,2013-06-04 16:07:00,
2013-06-04 12:09:00,68.6,47.0,30.05,NW,313,2.0,5.0,46,0.00,,,0.00,Wunderground v.1.15,2013-06-04 16:09:00,
2013-06-04 12:10:00,68.6,47.0,30.05,NW,312,2.0,2.0,46,0.00,,,0.00,Wunderground v.1.15,2013-06-04 16:10:00,
2013-06-04 12:11:00,68.6,47.0,30.05,NW,312,2.0,2.0,46,0.00,,,0.00,Wunderground v.1.15,2013-06-04 16:11:00,
2013-06-04 12:12:00,68.6,47.0,30.05,NW,312,2.0,2.0,46,0.00,,,0.00,Wunderground v.1.15,2013-06-04 16:12:00,
2013-06-04 12:15:00,68.6,47.0,30.05,North,5,2.0,7.0,46,0.00,,,0.00,Wunderground v.1.15,2013-06-04 16:15:00,
2013-06-04 12:18:00,68.6,44.6,30.05,NNW,342,2.0,7.0,42,0.00,,,0.00,Wunderground v.1.15,2013-06-04 16:18:00,
2013-06-04 12:19:00,68.6,46.4,30.05,NNW,342,2.0,7.0,45,0.00,,,0.00,Wunderground v.1.15,2013-06-04 16:19:00,
2013-06-04 12:21:00,68.8,46.6,30.05,SSW,213,2.0,2.0,45,0.00,,,0.00,Wunderground v.1.15,2013-06-04 16:21:00,
2013-06-04 12:24:00,69.3,48.2,30.05,NNE,23,2.0,4.0,47,0.00,,,0.00,Wunderground v.1.15,2013-06-04 16:24:00,
2013-06-04 12:26:00,69.4,47.7,30.05,NW,323,2.0,4.0,46,0.00,,,0.00,Wunderground v.1.15,2013-06-04 16:26:00,
2013-06-04 12:27:00,69.6,46.7,30.05,NW,315,2.0,4.0,44,0.00,,,0.00,Wunderground v.1.15,2013-06-04 16:27:00,
2013-06-04 12:29:00,69.8,48.7,30.05,NW,321,2.0,4.0,47,0.00,,,0.00,Wunderground v.1.15,2013-06-04 16:29:00,
2013-06-04 12:32:00,70.1,44.6,30.05,North,9,2.0,2.0,40,0.00,,,0.00,Wunderground v.1.15,2013-06-04 16:32:00,
2013-06-04 12:33:00,70.1,44.6,30.05,WNW,292,2.0,2.0,40,0.00,,,0.00,Wunderground v.1.15,2013-06-04 16:33:00,
2013-06-04 12:37:00,70.3,44.2,30.05,WSW,248,2.0,2.0,39,0.00,,,0.00,Wunderground v.1.15,2013-06-04 16:37:00,
2013-06-04 12:38:00,70.3,45.5,30.05,SW,217,2.0,4.0,41,0.00,,,0.00,Wunderground v.1.15,2013-06-04 16:38:00,
2013-06-04 12:40:00,70.4,45.6,30.05,SW,218,2.0,2.0,41,0.00,,,0.00,Wunderground v.1.15,2013-06-04 16:40:00,
2013-06-04 12:42:00,70.4,44.3,30.05,North,9,2.0,5.0,39,0.00,,,0.00,Wunderground v.1.15,2013-06-04 16:42:00,
2013-06-04 12:43:00,70.4,44.9,30.05,NNE,12,2.0,5.0,40,0.00,,,0.00,Wunderground v.1.15,2013-06-04 16:43:00,
2013-06-04 12:44:00,70.4,45.6,30.05,NNE,12,2.0,5.0,41,0.00,,,0.00,Wunderground v.1.15,2013-06-04 16:44:00,
2013-06-04 12:45:00,70.4,46.2,30.04,NNW,344,1.0,5.0,42,0.00,,,0.00,Wunderground v.1.15,2013-06-04 16:45:00,
2013-06-04 12:49:00,70.6,44.4,30.04,NNW,335,2.0,5.0,39,0.00,,,0.00,Wunderground v.1.15,2013-06-04 16:49:00,
2013-06-04 12:51:00,70.6,44.4,30.04,NNW,347,2.0,4.0,39,0.00,,,0.00,Wunderground v.1.15,2013-06-04 16:51:00,
2013-06-04 12:52:00,70.6,45.1,30.04,NNE,20,2.0,4.0,40,0.00,,,0.00,Wunderground v.1.15,2013-06-04 16:52:00,
2013-06-04 12:55:00,70.8,47.2,30.04,North,351,2.0,6.0,43,0.00,,,0.00,Wunderground v.1.15,2013-06-04 16:55:00,
2013-06-04 12:56:00,70.8,47.2,30.04,NNE,18,3.0,6.0,43,0.00,,,0.00,Wunderground v.1.15,2013-06-04 16:56:00,
2013-06-04 12:58:00,70.8,45.3,30.04,NE,46,3.0,6.0,40,0.00,,,0.00,Wunderground v.1.15,2013-06-04 16:58:00,
2013-06-04 12:59:00,70.8,43.9,30.04,NNE,30,3.0,6.0,38,0.00,,,0.00,Wunderground v.1.15,2013-06-04 16:59:00,
2013-06-04 13:01:00,70.9,46.7,30.03,NNE,17,3.0,3.0,42,0.00,,,0.00,Wunderground v.1.15,2013-06-04 17:01:00,
2013-06-04 13:03:00,71.1,45.5,30.03,NNE,19,2.0,6.0,40,0.00,,,0.00,Wunderground v.1.15,2013-06-04 17:03:00,
2013-06-04 13:06:00,71.3,47.6,30.03,NNE,17,2.0,6.0,43,0.00,,,0.00,Wunderground v.1.15,2013-06-04 17:06:00,
2013-06-04 13:07:00,71.3,46.4,30.03,East,86,2.0,6.0,41,0.00,,,0.00,Wunderground v.1.15,2013-06-04 17:07:00,
2013-06-04 13:08:00,71.5,46.6,30.03,East,86,2.0,6.0,41,0.00,,,0.00,Wunderground v.1.15,2013-06-04 17:08:00,
2013-06-04 13:09:00,71.5,44.5,30.03,ENE,76,2.0,6.0,38,0.00,,,0.00,Wunderground v.1.15,2013-06-04 17:09:00,
2013-06-04 13:12:00,71.6,45.3,30.03,ENE,61,1.0,2.0,39,0.00,,,0.00,Wunderground v.1.15,2013-06-04 17:12:00,
2013-06-04 13:14:00,71.8,44.1,30.03,WSW,258,1.0,5.0,37,0.00,,,0.00,Wunderground v.1.15,2013-06-04 17:14:00,
2013-06-04 13:15:00,71.8,44.1,30.03,NNE,13,1.0,5.0,37,0.00,,,0.00,Wunderground v.1.15,2013-06-04 17:15:00,
2013-06-04 13:16:00,71.8,44.1,30.03,NNE,24,1.0,5.0,37,0.00,,,0.00,Wunderground v.1.15,2013-06-04 17:16:00,
2013-06-04 13:17:00,71.8,44.1,30.03,NNW,333,2.0,5.0,37,0.00,,,0.00,Wunderground v.1.15,2013-06-04 17:17:00,
2013-06-04 13:21:00,72.0,45.7,30.03,West,275,1.0,1.0,39,0.00,,,0.00,Wunderground v.1.15,2013-06-04 17:21:00,
2013-06-04 13:22:00,72.0,46.3,30.03,West,277,2.0,2.0,40,0.00,,,0.00,Wunderground v.1.15,2013-06-04 17:22:00,
2013-06-04 13:23:00,72.0,45.7,30.03,West,277,1.0,4.0,39,0.00,,,0.00,Wunderground v.1.15,2013-06-04 17:23:00,
2013-06-04 13:26:00,71.8,48.1,30.03,WNW,296,1.0,4.0,43,0.00,,,0.00,Wunderground v.1.15,2013-06-04 17:26:00,
2013-06-04 13:28:00,71.8,46.2,30.03,NW,307,1.0,4.0,40,0.00,,,0.00,Wunderground v.1.15,2013-06-04 17:28:00,
2013-06-04 13:29:00,71.8,44.8,30.03,NW,306,1.0,4.0,38,0.00,,,0.00,Wunderground v.1.15,2013-06-04 17:29:00,
2013-06-04 13:30:00,72.0,45.0,30.03,NW,317,1.0,2.0,38,0.00,,,0.00,Wunderground v.1.15,2013-06-04 17:30:00,
2013-06-04 13:31:00,72.0,44.3,30.03,NW,317,1.0,2.0,37,0.00,,,0.00,Wunderground v.1.15,2013-06-04 17:31:00,
2013-06-04 13:34:00,71.8,45.5,30.03,NNW,327,1.0,4.0,39,0.00,,,0.00,Wunderground v.1.15,2013-06-04 17:34:00,
2013-06-04 13:35:00,71.8,44.8,30.03,NNW,348,1.0,4.0,38,0.00,,,0.00,Wunderground v.1.15,2013-06-04 17:35:00,
2013-06-04 13:37:00,72.0,45.7,30.03,North,355,2.0,4.0,39,0.00,,,0.00,Wunderground v.1.15,2013-06-04 17:37:00,
2013-06-04 13:38:00,72.0,45.0,30.03,North,9,2.0,4.0,38,0.00,,,0.00,Wunderground v.1.15,2013-06-04 17:38:00,
2013-06-04 13:40:00,72.0,45.0,30.03,North,355,2.0,5.0,38,0.00,,,0.00,Wunderground v.1.15,2013-06-04 17:40:00,
2013-06-04 13:42:00,71.8,46.2,30.03,NW,325,2.0,5.0,40,0.00,,,0.00,Wunderground v.1.15,2013-06-04 17:42:00,
2013-06-04 13:43:00,71.6,44.6,30.03,WNW,302,2.0,5.0,38,0.00,,,0.00,Wunderground v.1.15,2013-06-04 17:43:00,
2013-06-04 13:44:00,71.5,45.2,30.03,NW,315,2.0,5.0,39,0.00,,,0.00,Wunderground v.1.15,2013-06-04 17:44:00,
2013-06-04 13:47:00,71.3,46.4,30.03,North,5,2.0,5.0,41,0.00,,,0.00,Wunderground v.1.15,2013-06-04 17:47:00,
2013-06-04 13:49:00,71.3,45.7,30.03,West,278,2.0,6.0,40,0.00,,,0.00,Wunderground v.1.15,2013-06-04 17:49:00,
2013-06-04 13:52:00,72.0,46.3,30.03,ENE,61,2.0,3.0,40,0.00,,,0.00,Wunderground v.1.15,2013-06-04 17:52:00,
2013-06-04 13:53:00,72.1,44.4,30.03,North,355,2.0,6.0,37,0.00,,,0.00,Wunderground v.1.15,2013-06-04 17:53:00,
2013-06-04 13:56:00,72.5,45.4,30.03,NNW,327,2.0,6.0,38,0.00,,,0.00,Wunderground v.1.15,2013-06-04 17:56:00,
2013-06-04 13:58:00,72.5,44.0,30.03,NNW,327,2.0,6.0,36,0.00,,,0.00,Wunderground v.1.15,2013-06-04 17:58:00,
2013-06-04 13:59:00,72.5,45.4,30.03,NNW,327,2.0,6.0,38,0.00,,,0.00,Wunderground v.1.15,2013-06-04 17:59:00,
2013-06-04 14:01:00,72.7,45.6,30.03,NNW,327,1.0,2.0,38,0.00,,,0.00,Wunderground v.1.15,2013-06-04 18:01:00,
2013-06-04 14:03:00,72.7,44.9,30.03,North,355,1.0,5.0,37,0.00,,,0.00,Wunderground v.1.15,2013-06-04 18:03:00,
2013-06-04 14:04:00,72.7,46.3,30.03,NNE,14,1.0,5.0,39,0.00,,,0.00,Wunderground v.1.15,2013-06-04 18:04:00,
2013-06-04 14:05:00,72.8,46.4,30.03,NE,43,1.0,5.0,39,0.00,,,0.00,Wunderground v.1.15,2013-06-04 18:05:00,
2013-06-04 14:08:00,73.2,48.1,30.03,SSE,157,1.0,5.0,41,0.00,,,0.00,Wunderground v.1.15,2013-06-04 18:08:00,
2013-06-04 14:11:00,73.3,46.2,30.03,SE,143,2.0,2.0,38,0.00,,,0.00,Wunderground v.1.15,2013-06-04 18:11:00,
2013-06-04 14:12:00,73.3,46.8,30.03,SE,143,2.0,2.0,39,0.00,,,0.00,Wunderground v.1.15,2013-06-04 18:12:00,
2013-06-04 14:14:00,73.5,49.6,30.03,SE,142,1.0,2.0,43,0.00,,,0.00,Wunderground v.1.15,2013-06-04 18:14:00,
2013-06-04 14:15:00,73.5,46.3,30.03,SE,142,1.0,2.0,38,0.00,,,0.00,Wunderground v.1.15,2013-06-04 18:15:00,
2013-06-04 14:17:00,73.7,46.5,30.03,North,360,1.0,5.0,38,0.00,,,0.00,Wunderground v.1.15,2013-06-04 18:17:00,
2013-06-04 14:19:00,73.7,44.3,30.03,North,5,1.0,5.0,35,0.00,,,0.00,Wunderground v.1.15,2013-06-04 18:19:00,
2013-06-04 14:20:00,73.7,44.3,30.03,North,360,1.0,1.0,35,0.00,,,0.00,Wunderground v.1.15,2013-06-04 18:20:00,
2013-06-04 14:22:00,73.9,45.3,30.03,NE,43,1.0,1.0,36,0.00,,,0.00,Wunderground v.1.15,2013-06-04 18:22:00,
2013-06-04 14:26:00,73.9,47.4,30.03,NNE,19,2.0,5.0,39,0.00,,,0.00,Wunderground v.1.15,2013-06-04 18:26:00,
2013-06-04 14:28:00,73.9,47.4,30.03,NNE,17,1.0,5.0,39,0.00,,,0.00,Wunderground v.1.15,2013-06-04 18:28:00,
2013-06-04 14:29:00,73.9,46.7,30.03,NNE,17,1.0,5.0,38,0.00,,,0.00,Wunderground v.1.15,2013-06-04 18:29:00,
2013-06-04 14:33:00,73.7,46.5,30.03,NNW,342,2.0,5.0,38,0.00,,,0.00,Wunderground v.1.15,2013-06-04 18:33:00,
2013-06-04 14:36:00,73.7,45.8,30.03,NNE,20,2.0,5.0,37,0.00,,,0.00,Wunderground v.1.15,2013-06-04 18:36:00,
2013-06-04 14:37:00,73.7,45.1,30.03,NNE,17,2.0,5.0,36,0.00,,,0.00,Wunderground v.1.15,2013-06-04 18:37:00,
2013-06-04 14:38:00,73.7,44.3,30.03,NNE,17,2.0,5.0,35,0.00,,,0.00,Wunderground v.1.15,2013-06-04 18:38:00,
2013-06-04 14:39:00,73.7,47.9,30.03,NW,321,2.0,5.0,40,0.00,,,0.00,Wunderground v.1.15,2013-06-04 18:39:00,
2013-06-04 14:41:00,73.5,45.6,30.03,NNW,344,2.0,2.0,37,0.00,,,0.00,Wunderground v.1.15,2013-06-04 18:41:00,
2013-06-04 14:43:00,73.7,49.2,30.03,NNW,344,2.0,2.0,42,0.00,,,0.00,Wunderground v.1.15,2013-06-04 18:43:00,
2013-06-04 14:44:00,73.7,51.0,30.03,NNW,344,1.0,2.0,45,0.00,,,0.00,Wunderground v.1.15,2013-06-04 18:44:00,
2013-06-04 14:46:00,73.7,45.8,30.02,NNW,342,1.0,2.0,37,0.00,,,0.00,Wunderground v.1.15,2013-06-04 18:46:00,
2013-06-04 14:47:00,73.7,46.5,30.02,NNW,342,1.0,2.0,38,0.00,,,0.00,Wunderground v.1.15,2013-06-04 18:47:00,
2013-06-04 14:48:00,73.7,47.9,30.02,NNW,342,1.0,2.0,40,0.00,,,0.00,Wunderground v.1.15,2013-06-04 18:48:00,
2013-06-04 14:50:00,73.9,46.7,30.02,NNW,346,1.0,1.0,38,0.00,,,0.00,Wunderground v.1.15,2013-06-04 18:50:00,
2013-06-04 14:51:00,73.9,46.7,30.02,NNW,346,1.0,4.0,38,0.00,,,0.00,Wunderground v.1.15,2013-06-04 18:51:00,
2013-06-04 14:53:00,74.0,46.1,30.02,NNW,344,1.0,4.0,37,0.00,,,0.00,Wunderground v.1.15,2013-06-04 18:53:00,
2013-06-04 14:54:00,74.0,48.8,30.02,NNW,344,1.0,4.0,41,0.00,,,0.00,Wunderground v.1.15,2013-06-04 18:54:00,
2013-06-04 14:57:00,74.4,44.2,30.02,North,5,1.0,4.0,34,0.00,,,0.00,Wunderground v.1.15,2013-06-04 18:57:00,
2013-06-04 14:59:00,74.7,46.0,30.02,NW,312,1.0,4.0,36,0.00,,,0.00,Wunderground v.1.15,2013-06-04 18:59:00,
2013-06-04 15:00:00,74.9,44.6,30.01,North,10,1.0,1.0,34,0.00,,,0.00,Wunderground v.1.15,2013-06-04 19:00:00,
2013-06-04 15:01:00,74.9,45.4,30.01,NE,54,1.0,1.0,35,0.00,,,0.00,Wunderground v.1.15,2013-06-04 19:01:00,
2013-06-04 15:04:00,75.3,45.0,30.01,NE,53,1.0,2.0,34,0.00,,,0.00,Wunderground v.1.15,2013-06-04 19:04:00,
2013-06-04 15:05:00,75.3,45.0,30.01,ENE,60,1.0,2.0,34,0.00,,,0.00,Wunderground v.1.15,2013-06-04 19:05:00,
2013-06-04 15:06:00,75.4,45.1,30.01,ENE,57,1.0,2.0,34,0.00,,,0.00,Wunderground v.1.15,2013-06-04 19:06:00,
2013-06-04 15:08:00,75.4,45.1,30.01,NE,42,1.0,2.0,34,0.00,,,0.00,Wunderground v.1.15,2013-06-04 19:08:00,
2013-06-04 15:09:00,75.4,46.6,30.01,NE,42,1.0,2.0,36,0.00,,,0.00,Wunderground v.1.15,2013-06-04 19:09:00,
2013-06-04 15:13:00,75.6,46.0,30.01,NNE,27,1.0,3.0,35,0.00,,,0.00,Wunderground v.1.15,2013-06-04 19:13:00,
2013-06-04 15:15:00,75.8,46.9,30.01,NNE,30,1.0,3.0,36,0.00,,,0.00,Wunderground v.1.15,2013-06-04 19:15:00,
2013-06-04 15:16:00,75.8,46.9,30.01,NNE,12,1.0,5.0,36,0.00,,,0.00,Wunderground v.1.15,2013-06-04 19:16:00,
2013-06-04 15:18:00,75.8,46.9,30.01,SE,135,1.0,7.0,36,0.00,,,0.00,Wunderground v.1.15,2013-06-04 19:18:00,
2013-06-04 15:20:00,75.8,47.7,30.01,SW,235,1.0,1.0,37,0.00,,,0.00,Wunderground v.1.15,2013-06-04 19:20:00,
2013-06-04 15:21:00,75.6,46.0,30.01,SW,235,1.0,1.0,35,0.00,,,0.00,Wunderground v.1.15,2013-06-04 19:21:00,
2013-06-04 15:24:00,75.6,46.8,30.01,South,172,1.0,4.0,36,0.00,,,0.00,Wunderground v.1.15,2013-06-04 19:24:00,
2013-06-04 15:26:00,75.4,45.8,30.01,South,172,2.0,4.0,35,0.00,,,0.00,Wunderground v.1.15,2013-06-04 19:26:00,
2013-06-04 15:27:00,75.3,45.0,30.01,South,172,1.0,5.0,34,0.00,,,0.00,Wunderground v.1.15,2013-06-04 19:27:00,
2013-06-04 15:29:00,74.9,45.4,30.01,SSW,196,1.0,5.0,35,0.00,,,0.00,Wunderground v.1.15,2013-06-04 19:29:00,
2013-06-04 15:31:00,74.7,46.7,30.02,SSW,194,1.0,2.0,37,0.00,,,0.00,Wunderground v.1.15,2013-06-04 19:31:00,
2013-06-04 15:34:00,74.6,45.9,30.02,SSE,167,2.0,3.0,36,0.00,,,0.00,Wunderground v.1.15,2013-06-04 19:34:00,
2013-06-04 15:37:00,74.4,47.1,30.02,SE,142,2.0,4.0,38,0.00,,,0.00,Wunderground v.1.15,2013-06-04 19:37:00,
2013-06-04 15:38:00,74.4,48.5,30.02,SE,142,2.0,4.0,40,0.00,,,0.00,Wunderground v.1.15,2013-06-04 19:38:00,
2013-06-04 15:39:00,74.6,48.0,30.02,SE,142,2.0,4.0,39,0.00,,,0.00,Wunderground v.1.15,2013-06-04 19:39:00,
2013-06-04 15:40:00,74.7,48.1,30.02,SE,142,2.0,2.0,39,0.00,,,0.00,Wunderground v.1.15,2013-06-04 19:40:00,
2013-06-04 15:44:00,74.7,49.4,30.02,SE,142,2.0,4.0,41,0.00,,,0.00,Wunderground v.1.15,2013-06-04 19:44:00,
2013-06-04 15:45:00,74.9,48.9,30.02,SE,142,2.0,4.0,40,0.00,,,0.00,Wunderground v.1.15,2013-06-04 19:45:00,
2013-06-04 15:46:00,74.9,48.9,30.02,SE,142,1.0,4.0,40,0.00,,,0.00,Wunderground v.1.15,2013-06-04 19:46:00,
2013-06-04 15:47:00,75.1,46.3,30.02,SE,142,1.0,4.0,36,0.00,,,0.00,Wunderground v.1.15,2013-06-04 19:47:00,
2013-06-04 15:49:00,75.3,50.0,30.02,ENE,69,1.0,4.0,41,0.00,,,0.00,Wunderground v.1.15,2013-06-04 19:49:00,
2013-06-04 15:53:00,76.0,47.1,30.02,ENE,71,0.0,2.0,36,0.00,,,0.00,Wunderground v.1.15,2013-06-04 19:53:00,
2013-06-04 15:54:00,76.0,47.1,30.02,ENE,71,0.0,2.0,36,0.00,,,0.00,Wunderground v.1.15,2013-06-04 19:54:00,
2013-06-04 15:55:00,76.1,49.3,30.02,ENE,72,0.0,2.0,39,0.00,,,0.00,Wunderground v.1.15,2013-06-04 19:55:00,
2013-06-04 15:58:00,76.5,46.8,30.02,NE,35,1.0,4.0,35,0.00,,,0.00,Wunderground v.1.15,2013-06-04 19:58:00,
2013-06-04 15:59:00,76.5,47.6,30.02,NE,35,1.0,4.0,36,0.00,,,0.00,Wunderground v.1.15,2013-06-04 19:59:00,
2013-06-04 16:01:00,76.7,48.5,30.01,ESE,115,1.0,4.0,37,0.00,,,0.00,Wunderground v.1.15,2013-06-04 20:01:00,
2013-06-04 16:03:00,76.7,49.2,30.01,SE,128,1.0,4.0,38,0.00,,,0.00,Wunderground v.1.15,2013-06-04 20:03:00,
2013-06-04 16:04:00,76.8,48.6,30.01,SE,128,1.0,4.0,37,0.00,,,0.00,Wunderground v.1.15,2013-06-04 20:04:00,
2013-06-04 16:06:00,77.0,50.1,30.01,SE,128,1.0,4.0,39,0.00,,,0.00,Wunderground v.1.15,2013-06-04 20:06:00,
2013-06-04 16:08:00,77.0,46.5,30.01,SE,128,0.0,4.0,34,0.00,,,0.00,Wunderground v.1.15,2013-06-04 20:08:00,
2013-06-04 16:11:00,77.0,48.7,30.01,East,86,1.0,1.0,37,0.00,,,0.00,Wunderground v.1.15,2013-06-04 20:11:00,
2013-06-04 16:12:00,76.8,47.1,30.01,East,86,1.0,1.0,35,0.00,,,0.00,Wunderground v.1.15,2013-06-04 20:12:00,
2013-06-04 16:14:00,76.7,48.5,30.01,NE,42,1.0,1.0,37,0.00,,,0.00,Wunderground v.1.15,2013-06-04 20:14:00,
2013-06-04 16:16:00,76.3,47.4,30.01,NNE,13,2.0,5.0,36,0.00,,,0.00,Wunderground v.1.15,2013-06-04 20:16:00,
2013-06-04 16:18:00,76.1,46.5,30.01,North,360,2.0,5.0,35,0.00,,,0.00,Wunderground v.1.15,2013-06-04 20:18:00,
2013-06-04 16:19:00,76.0,47.8,30.01,North,360,2.0,5.0,37,0.00,,,0.00,Wunderground v.1.15,2013-06-04 20:19:00,
2013-06-04 16:21:00,76.1,47.9,30.01,North,5,2.0,2.0,37,0.00,,,0.00,Wunderground v.1.15,2013-06-04 20:21:00,
2013-06-04 16:22:00,76.1,47.9,30.01,North,5,2.0,2.0,37,0.00,,,0.00,Wunderground v.1.15,2013-06-04 20:22:00,
2013-06-04 16:23:00,76.1,47.9,30.01,North,5,2.0,2.0,37,0.00,,,0.00,Wunderground v.1.15,2013-06-04 20:23:00,
2013-06-04 16:28:00,76.7,48.5,30.01,NE,34,1.0,2.0,37,0.00,,,0.00,Wunderground v.1.15,2013-06-04 20:28:00,
2013-06-04 16:30:00,76.7,49.9,30.00,East,86,1.0,1.0,39,0.00,,,0.00,Wunderground v.1.15,2013-06-04 20:30:00,
2013-06-04 16:31:00,76.8,48.6,30.00,East,86,1.0,1.0,37,0.00,,,0.00,Wunderground v.1.15,2013-06-04 20:31:00,
2013-06-04 16:34:00,77.0,49.4,30.00,East,88,1.0,2.0,38,0.00,,,0.00,Wunderground v.1.15,2013-06-04 20:34:00,
2013-06-04 16:35:00,77.0,47.2,30.00,East,88,1.0,2.0,35,0.00,,,0.00,Wunderground v.1.15,2013-06-04 20:35:00,
2013-06-04 16:37:00,77.0,48.0,30.00,East,88,1.0,2.0,36,0.00,,,0.00,Wunderground v.1.15,2013-06-04 20:37:00,
2013-06-04 16:40:00,77.2,47.4,30.00,East,88,0.0,1.0,35,0.00,,,0.00,Wunderground v.1.15,2013-06-04 20:40:00,
2013-06-04 16:41:00,77.2,47.4,30.00,East,88,0.0,1.0,35,0.00,,,0.00,Wunderground v.1.15,2013-06-04 20:41:00,
2013-06-04 16:43:00,77.6,51.4,30.00,East,94,1.0,2.0,40,0.00,,,0.00,Wunderground v.1.15,2013-06-04 20:43:00,
2013-06-04 16:44:00,77.6,49.3,30.00,SE,135,1.0,2.0,37,0.00,,,0.00,Wunderground v.1.15,2013-06-04 20:44:00,
2013-06-04 16:48:00,77.4,49.8,29.99,SSE,163,2.0,4.0,38,0.00,,,0.00,Wunderground v.1.15,2013-06-04 20:48:00,
2013-06-04 16:49:00,77.4,49.8,29.99,SSE,167,2.0,4.0,38,0.00,,,0.00,Wunderground v.1.15,2013-06-04 20:49:00,
2013-06-04 16:50:00,77.4,49.1,29.99,SSE,161,2.0,2.0,37,0.00,,,0.00,Wunderground v.1.15,2013-06-04 20:50:00,
2013-06-04 16:52:00,77.0,50.1,29.99,SSE,163,2.0,4.0,39,0.00,,,0.00,Wunderground v.1.15,2013-06-04 20:52:00,
2013-06-04 16:54:00,76.8,49.3,29.99,SSE,161,2.0,4.0,38,0.00,,,0.00,Wunderground v.1.15,2013-06-04 20:54:00,
2013-06-04 16:56:00,76.8,52.0,29.99,SSE,161,2.0,4.0,42,0.00,,,0.00,Wunderground v.1.15,2013-06-04 20:56:00,
2013-06-04 17:00:00,76.8,47.1,30.00,SSE,161,1.0,1.0,35,0.00,,,0.00,Wunderground v.1.15,2013-06-04 21:00:00,
2013-06-04 17:01:00,77.0,48.7,30.00,SSE,161,1.0,1.0,37,0.00,,,0.00,Wunderground v.1.15,2013-06-04 21:01:00,
2013-06-04 17:02:00,77.0,47.2,30.00,SSE,161,1.0,1.0,35,0.00,,,0.00,Wunderground v.1.15,2013-06-04 21:02:00,
2013-06-04 17:05:00,77.0,48.0,30.00,SSE,156,1.0,4.0,36,0.00,,,0.00,Wunderground v.1.15,2013-06-04 21:05:00,
2013-06-04 17:07:00,77.0,50.1,30.00,SSE,151,1.0,4.0,39,0.00,,,0.00,Wunderground v.1.15,2013-06-04 21:07:00,
2013-06-04 17:11:00,77.0,50.8,30.00,SSE,151,1.0,1.0,40,0.00,,,0.00,Wunderground v.1.15,2013-06-04 21:11:00,
2013-06-04 17:12:00,77.2,50.3,30.00,SSW,192,1.0,1.0,39,0.00,,,0.00,Wunderground v.1.15,2013-06-04 21:12:00,
2013-06-04 17:14:00,77.2,50.3,30.00,South,186,1.0,5.0,39,0.00,,,0.00,Wunderground v.1.15,2013-06-04 21:14:00,
2013-06-04 17:17:00,77.4,48.3,30.00,South,179,1.0,5.0,36,0.00,,,0.00,Wunderground v.1.15,2013-06-04 21:17:00,
2013-06-04 17:18:00,77.4,49.1,30.00,South,179,1.0,6.0,37,0.00,,,0.00,Wunderground v.1.15,2013-06-04 21:18:00,
2013-06-04 17:19:00,77.0,47.2,30.00,SW,217,2.0,6.0,35,0.00,,,0.00,Wunderground v.1.15,2013-06-04 21:19:00,
2013-06-04 17:20:00,76.7,47.7,30.00,SW,230,2.0,2.0,36,0.00,,,0.00,Wunderground v.1.15,2013-06-04 21:20:00,
2013-06-04 17:23:00,76.7,49.2,30.00,SW,230,2.0,2.0,38,0.00,,,0.00,Wunderground v.1.15,2013-06-04 21:23:00,
2013-06-04 17:25:00,77.0,48.7,30.00,WSW,239,2.0,4.0,37,0.00,,,0.00,Wunderground v.1.15,2013-06-04 21:25:00,
2013-06-04 17:27:00,77.0,49.4,30.00,SSE,153,2.0,4.0,38,0.00,,,0.00,Wunderground v.1.15,2013-06-04 21:27:00,
2013-06-04 17:28:00,77.0,50.1,30.00,SSE,153,2.0,4.0,39,0.00,,,0.00,Wunderground v.1.15,2013-06-04 21:28:00,
2013-06-04 17:33:00,77.6,47.8,29.99,SSE,153,1.0,2.0,35,0.00,,,0.00,Wunderground v.1.15,2013-06-04 21:33:00,
2013-06-04 17:34:00,77.6,49.3,29.99,SSE,153,1.0,2.0,37,0.00,,,0.00,Wunderground v.1.15,2013-06-04 21:34:00,
2013-06-04 17:35:00,77.4,50.5,29.99,SSE,153,1.0,2.0,39,0.00,,,0.00,Wunderground v.1.15,2013-06-04 21:35:00,
2013-06-04 17:36:00,77.4,50.5,29.99,SSE,153,1.0,2.0,39,0.00,,,0.00,Wunderground v.1.15,2013-06-04 21:36:00,
2013-06-04 17:41:00,77.2,51.7,29.99,SSE,152,1.0,1.0,41,0.00,,,0.00,Wunderground v.1.15,2013-06-04 21:41:00,
2013-06-04 17:42:00,77.4,50.5,29.99,SSE,152,1.0,1.0,39,0.00,,,0.00,Wunderground v.1.15,2013-06-04 21:42:00,
2013-06-04 17:43:00,77.2,50.3,29.99,SSE,151,1.0,2.0,39,0.00,,,0.00,Wunderground v.1.15,2013-06-04 21:43:00,
2013-06-04 17:47:00,77.4,51.2,29.98,SSE,151,1.0,2.0,40,0.00,,,0.00,Wunderground v.1.15,2013-06-04 21:47:00,
2013-06-04 17:48:00,77.4,52.5,29.98,SSE,151,1.0,2.0,42,0.00,,,0.00,Wunderground v.1.15,2013-06-04 21:48:00,
2013-06-04 17:49:00,77.4,51.2,29.98,SSE,151,1.0,2.0,40,0.00,,,0.00,Wunderground v.1.15,2013-06-04 21:49:00,
2013-06-04 17:52:00,77.7,50.1,29.98,SSE,151,1.0,1.0,38,0.00,,,0.00,Wunderground v.1.15,2013-06-04 21:52:00,
2013-06-04 17:53:00,77.7,49.3,29.98,SSE,151,1.0,1.0,37,0.00,,,0.00,Wunderground v.1.15,2013-06-04 21:53:00,
2013-06-04 17:54:00,77.7,50.1,29.98,SSE,151,1.0,1.0,38,0.00,,,0.00,Wunderground v.1.15,2013-06-04 21:54:00,
2013-06-04 17:57:00,78.1,51.8,29.98,SSE,151,0.0,1.0,40,0.00,,,0.00,Wunderground v.1.15,2013-06-04 21:57:00,
2013-06-04 17:58:00,78.1,51.8,29.98,SSE,151,0.0,3.0,40,0.00,,,0.00,Wunderground v.1.15,2013-06-04 21:58:00,
2013-06-04 17:59:00,78.3,52.0,29.98,SSE,151,0.0,3.0,40,0.00,,,0.00,Wunderground v.1.15,2013-06-04 21:59:00,
2013-06-04 18:00:00,78.3,50.6,29.98,SSE,151,0.0,2.0,38,0.00,,,0.00,Wunderground v.1.15,2013-06-04 22:00:00,
2013-06-04 18:03:00,77.7,49.3,29.98,SSE,158,1.0,4.0,37,0.00,,,0.00,Wunderground v.1.15,2013-06-04 22:03:00,
2013-06-04 18:05:00,77.4,49.8,29.98,SSE,158,1.0,4.0,38,0.00,,,0.00,Wunderground v.1.15,2013-06-04 22:05:00,
2013-06-04 18:08:00,77.6,51.4,29.98,SSE,158,1.0,4.0,40,0.00,,,0.00,Wunderground v.1.15,2013-06-04 22:08:00,
2013-06-04 18:09:00,77.6,50.0,29.98,SSE,158,1.0,4.0,38,0.00,,,0.00,Wunderground v.1.15,2013-06-04 22:09:00,
2013-06-04 18:11:00,77.7,50.1,29.98,SSE,158,1.0,2.0,38,0.00,,,0.00,Wunderground v.1.15,2013-06-04 22:11:00,
2013-06-04 18:12:00,77.7,50.1,29.98,SSE,159,1.0,2.0,38,0.00,,,0.00,Wunderground v.1.15,2013-06-04 22:12:00,
2013-06-04 18:16:00,77.9,50.2,29.98,SSE,159,1.0,2.0,38,0.00,,,0.00,Wunderground v.1.15,2013-06-04 22:16:00,
2013-06-04 18:18:00,77.9,50.2,29.98,NNW,336,1.0,2.0,38,0.00,,,0.00,Wunderground v.1.15,2013-06-04 22:18:00,
2013-06-04 18:19:00,77.9,49.5,29.98,South,169,1.0,2.0,37,0.00,,,0.00,Wunderground v.1.15,2013-06-04 22:19:00,
2013-06-04 18:21:00,78.1,50.4,29.98,WSW,241,1.0,2.0,38,0.00,,,0.00,Wunderground v.1.15,2013-06-04 22:21:00,
2013-06-04 18:23:00,78.1,51.1,29.98,SSW,205,1.0,2.0,39,0.00,,,0.00,Wunderground v.1.15,2013-06-04 22:23:00,
2013-06-04 18:24:00,78.3,50.6,29.98,SW,224,1.0,2.0,38,0.00,,,0.00,Wunderground v.1.15,2013-06-04 22:24:00,
2013-06-04 18:26:00,78.3,49.1,29.98,SW,225,1.0,2.0,36,0.00,,,0.00,Wunderground v.1.15,2013-06-04 22:26:00,
2013-06-04 18:27:00,78.5,50.1,29.98,SW,225,1.0,2.0,37,0.00,,,0.00,Wunderground v.1.15,2013-06-04 22:27:00,
2013-06-04 18:30:00,78.5,50.1,29.98,SSE,148,1.0,5.0,37,0.00,,,0.00,Wunderground v.1.15,2013-06-04 22:30:00,
2013-06-04 18:31:00,78.3,49.9,29.98,SE,145,1.0,5.0,37,0.00,,,0.00,Wunderground v.1.15,2013-06-04 22:31:00,
2013-06-04 18:32:00,78.1,50.4,29.98,ESE,107,1.0,5.0,38,0.00,,,0.00,Wunderground v.1.15,2013-06-04 22:32:00,
2013-06-04 18:33:00,77.9,50.9,29.98,ESE,107,1.0,5.0,39,0.00,,,0.00,Wunderground v.1.15,2013-06-04 22:33:00,
2013-06-04 18:38:00,77.4,50.5,29.98,ESE,123,2.0,5.0,39,0.00,,,0.00,Wunderground v.1.15,2013-06-04 22:38:00,
2013-06-04 18:39:00,77.2,49.6,29.98,ESE,122,2.0,5.0,38,0.00,,,0.00,Wunderground v.1.15,2013-06-04 22:39:00,
2013-06-04 18:40:00,77.2,50.3,29.98,ESE,122,1.0,1.0,39,0.00,,,0.00,Wunderground v.1.15,2013-06-04 22:40:00,
2013-06-04 18:41:00,77.2,49.6,29.98,ESE,122,1.0,1.0,38,0.00,,,0.00,Wunderground v.1.15,2013-06-04 22:41:00,
2013-06-04 18:44:00,77.2,48.9,29.98,SE,124,1.0,1.0,37,0.00,,,0.00,Wunderground v.1.15,2013-06-04 22:44:00,
2013-06-04 18:45:00,77.4,49.1,29.98,SE,124,1.0,2.0,37,0.00,,,0.00,Wunderground v.1.15,2013-06-04 22:45:00,
2013-06-04 18:46:00,77.4,49.1,29.98,SE,124,0.0,2.0,37,0.00,,,0.00,Wunderground v.1.15,2013-06-04 22:46:00,
2013-06-04 18:49:00,77.4,50.5,29.98,SE,124,0.0,2.0,39,0.00,,,0.00,Wunderground v.1.15,2013-06-04 22:49:00,
2013-06-04 18:51:00,77.6,51.4,29.98,SE,124,0.0,1.0,40,0.00,,,0.00,Wunderground v.1.15,2013-06-04 22:51:00,
2013-06-04 18:52:00,77.4,49.1,29.98,SE,124,0.0,1.0,37,0.00,,,0.00,Wunderground v.1.15,2013-06-04 22:52:00,
2013-06-04 18:54:00,77.0,48.0,29.98,SE,124,0.0,1.0,36,0.00,,,0.00,Wunderground v.1.15,2013-06-04 22:54:00,
2013-06-04 18:56:00,76.8,50.0,29.98,SE,132,0.0,1.0,39,0.00,,,0.00,Wunderground v.1.15,2013-06-04 22:56:00,
2013-06-04 18:58:00,76.7,49.9,29.98,SE,132,1.0,3.0,39,0.00,,,0.00,Wunderground v.1.15,2013-06-04 22:58:00,
2013-06-04 19:00:00,76.7,49.9,29.98,SSE,157,1.0,1.0,39,0.00,,,0.00,Wunderground v.1.15,2013-06-04 23:00:00,
2013-06-04 19:03:00,76.5,49.0,29.98,SSE,147,1.0,2.0,38,0.00,,,0.00,Wunderground v.1.15,2013-06-04 23:03:00,
2013-06-04 19:05:00,76.3,50.2,29.98,SSE,148,1.0,2.0,40,0.00,,,0.00,Wunderground v.1.15,2013-06-04 23:05:00,
2013-06-04 19:08:00,76.1,50.0,29.98,SSE,148,1.0,2.0,40,0.00,,,0.00,Wunderground v.1.15,2013-06-04 23:08:00,
2013-06-04 19:09:00,76.0,51.2,29.98,SSE,147,1.0,2.0,42,0.00,,,0.00,Wunderground v.1.15,2013-06-04 23:09:00,
2013-06-04 19:11:00,76.0,51.9,29.98,SSE,155,1.0,1.0,43,0.00,,,0.00,Wunderground v.1.15,2013-06-04 23:11:00,
2013-06-04 19:12:00,76.0,51.2,29.98,SSE,155,1.0,1.0,42,0.00,,,0.00,Wunderground v.1.15,2013-06-04 23:12:00,
2013-06-04 19:14:00,76.0,51.2,29.98,SSE,155,1.0,1.0,42,0.00,,,0.00,Wunderground v.1.15,2013-06-04 23:14:00,
2013-06-04 19:17:00,75.8,51.7,29.98,SSE,152,1.0,1.0,43,0.00,,,0.00,Wunderground v.1.15,2013-06-04 23:17:00,
2013-06-04 19:18:00,75.8,52.3,29.98,SSE,152,0.0,1.0,44,0.00,,,0.00,Wunderground v.1.15,2013-06-04 23:18:00,
2013-06-04 19:20:00,75.8,52.3,29.98,SSE,152,0.0,1.0,44,0.00,,,0.00,Wunderground v.1.15,2013-06-04 23:20:00,
2013-06-04 19:24:00,75.4,52.0,29.98,SE,137,1.0,4.0,44,0.00,,,0.00,Wunderground v.1.15,2013-06-04 23:24:00,
2013-06-04 19:25:00,75.3,52.5,29.98,SE,134,1.0,4.0,45,0.00,,,0.00,Wunderground v.1.15,2013-06-04 23:25:00,
2013-06-04 19:27:00,75.1,52.3,29.98,South,169,1.0,4.0,45,0.00,,,0.00,Wunderground v.1.15,2013-06-04 23:27:00,
2013-06-04 19:32:00,74.2,52.1,29.99,SSE,149,2.0,2.0,46,0.00,,,0.00,Wunderground v.1.15,2013-06-04 23:32:00,
2013-06-04 19:33:00,74.0,53.1,29.99,SE,141,2.0,2.0,48,0.00,,,0.00,Wunderground v.1.15,2013-06-04 23:33:00,
2013-06-04 19:34:00,73.7,52.2,29.99,ESE,123,2.0,2.0,47,0.00,,,0.00,Wunderground v.1.15,2013-06-04 23:34:00,
2013-06-04 19:36:00,73.3,51.3,29.99,SE,136,2.0,4.0,46,0.00,,,0.00,Wunderground v.1.15,2013-06-04 23:36:00,
2013-06-04 19:37:00,73.2,51.8,29.99,SE,142,2.0,5.0,47,0.00,,,0.00,Wunderground v.1.15,2013-06-04 23:37:00,
2013-06-04 19:39:00,72.8,52.0,29.99,SE,144,2.0,5.0,48,0.00,,,0.00,Wunderground v.1.15,2013-06-04 23:39:00,
2013-06-04 19:40:00,72.7,51.3,29.99,SE,132,2.0,3.0,47,0.00,,,0.00,Wunderground v.1.15,2013-06-04 23:40:00,
2013-06-04 19:41:00,72.5,51.7,29.99,SE,139,2.0,3.0,48,0.00,,,0.00,Wunderground v.1.15,2013-06-04 23:41:00,
2013-06-04 19:43:00,72.3,51.5,29.99,SE,139,2.0,3.0,48,0.00,,,0.00,Wunderground v.1.15,2013-06-04 23:43:00,
2013-06-04 19:45:00,72.0,51.8,30.00,SE,140,2.0,3.0,49,0.00,,,0.00,Wunderground v.1.15,2013-06-04 23:45:00,
2013-06-04 19:46:00,72.0,51.2,30.00,SE,140,2.0,3.0,48,0.00,,,0.00,Wunderground v.1.15,2013-06-04 23:46:00,
2013-06-04 19:48:00,71.8,51.6,30.00,SE,125,1.0,3.0,49,0.00,,,0.00,Wunderground v.1.15,2013-06-04 23:48:00,
2013-06-04 19:49:00,71.6,51.4,30.00,SE,125,1.0,3.0,49,0.00,,,0.00,Wunderground v.1.15,2013-06-04 23:49:00,
2013-06-04 19:50:00,71.6,51.4,30.00,SE,125,1.0,1.0,49,0.00,,,0.00,Wunderground v.1.15,2013-06-04 23:50:00,
2013-06-04 19:53:00,71.5,51.9,30.00,SE,125,1.0,2.0,50,0.00,,,0.00,Wunderground v.1.15,2013-06-04 23:53:00,
2013-06-04 19:54:00,71.5,51.9,30.00,SE,125,1.0,2.0,50,0.00,,,0.00,Wunderground v.1.15,2013-06-04 23:54:00,
2013-06-04 19:56:00,71.3,51.7,30.00,SE,125,1.0,2.0,50,0.00,,,0.00,Wunderground v.1.15,2013-06-04 23:56:00,
2013-06-04 19:57:00,71.3,51.7,30.00,SE,125,1.0,2.0,50,0.00,,,0.00,Wunderground v.1.15,2013-06-04 23:57:00,
2013-06-04 19:58:00,71.3,52.2,30.00,SE,125,1.0,2.0,51,0.00,,,0.00,Wunderground v.1.15,2013-06-04 23:58:00,
2013-06-04 19:59:00,71.1,51.5,30.00,SE,125,1.0,2.0,50,0.00,,,0.00,Wunderground v.1.15,2013-06-04 23:59:00,
2013-06-04 20:00:00,71.1,52.0,30.00,SE,125,1.0,1.0,51,0.00,,,0.00,Wunderground v.1.15,2013-06-05 00:00:00,
2013-06-04 20:03:00,70.9,51.9,30.00,SE,125,0.0,1.0,51,0.00,,,0.00,Wunderground v.1.15,2013-06-05 00:03:00,
2013-06-04 20:05:00,70.8,51.8,30.00,SE,125,0.0,1.0,51,0.00,,,0.00,Wunderground v.1.15,2013-06-05 00:05:00,
2013-06-04 20:06:00,70.8,51.8,30.00,SE,125,0.0,1.0,51,0.00,,,0.00,Wunderground v.1.15,2013-06-05 00:06:00,
2013-06-04 20:08:00,70.8,51.8,30.00,SE,125,0.0,1.0,51,0.00,,,0.00,Wunderground v.1.15,2013-06-05 00:08:00,
2013-06-04 20:10:00,70.6,52.1,30.00,SE,125,0.0,0.0,52,0.00,,,0.00,Wunderground v.1.15,2013-06-05 00:10:00,
2013-06-04 20:11:00,70.6,52.1,30.00,SE,125,0.0,0.0,52,0.00,,,0.00,Wunderground v.1.15,2013-06-05 00:11:00,
2013-06-04 20:13:00,70.4,51.9,30.00,SE,125,0.0,0.0,52,0.00,,,0.00,Wunderground v.1.15,2013-06-05 00:13:00,
2013-06-04 20:16:00,70.3,52.4,30.00,SSE,151,0.0,0.0,53,0.00,,,0.00,Wunderground v.1.15,2013-06-05 00:16:00,
2013-06-04 20:17:00,70.3,52.4,30.00,SSE,151,0.0,0.0,53,0.00,,,0.00,Wunderground v.1.15,2013-06-05 00:17:00,
2013-06-04 20:23:00,69.6,52.2,30.00,SSE,151,0.0,1.0,54,0.00,,,0.00,Wunderground v.1.15,2013-06-05 00:23:00,
2013-06-04 20:24:00,69.4,52.0,30.00,SSE,151,0.0,1.0,54,0.00,,,0.00,Wunderground v.1.15,2013-06-05 00:24:00,
2013-06-04 20:25:00,69.3,51.9,30.00,SSE,151,0.0,1.0,54,0.00,,,0.00,Wunderground v.1.15,2013-06-05 00:25:00,
2013-06-04 20:26:00,69.3,51.9,30.00,SSE,151,0.0,1.0,54,0.00,,,0.00,Wunderground v.1.15,2013-06-05 00:26:00,
2013-06-04 20:28:00,68.9,51.6,30.00,SSE,151,0.0,1.0,54,0.00,,,0.00,Wunderground v.1.15,2013-06-05 00:28:00,
2013-06-04 20:30:00,68.8,51.5,30.00,SSE,151,0.0,0.0,54,0.00,,,0.00,Wunderground v.1.15,2013-06-05 00:30:00,
2013-06-04 20:35:00,68.4,51.6,30.00,SSE,151,0.0,0.0,55,0.00,,,0.00,Wunderground v.1.15,2013-06-05 00:35:00,
2013-06-04 20:36:00,68.4,51.6,30.00,SSE,151,0.0,0.0,55,0.00,,,0.00,Wunderground v.1.15,2013-06-05 00:36:00,
2013-06-04 20:38:00,68.4,52.1,30.00,SSE,151,0.0,0.0,56,0.00,,,0.00,Wunderground v.1.15,2013-06-05 00:38:00,
2013-06-04 20:40:00,68.3,51.5,30.00,SSE,151,0.0,0.0,55,0.00,,,0.00,Wunderground v.1.15,2013-06-05 00:40:00,
2013-06-04 20:41:00,68.1,51.8,30.00,SSE,151,0.0,0.0,56,0.00,,,0.00,Wunderground v.1.15,2013-06-05 00:41:00,
2013-06-04 20:46:00,67.8,51.5,30.02,SSE,151,0.0,0.0,56,0.00,,,0.00,Wunderground v.1.15,2013-06-05 00:46:00,
2013-06-04 20:47:00,67.8,51.5,30.02,SSE,151,0.0,0.0,56,0.00,,,0.00,Wunderground v.1.15,2013-06-05 00:47:00,
2013-06-04 20:48:00,67.6,51.8,30.02,SSE,151,0.0,0.0,57,0.00,,,0.00,Wunderground v.1.15,2013-06-05 00:48:00,
2013-06-04 20:51:00,67.4,52.1,30.02,SSE,151,0.0,0.0,58,0.00,,,0.00,Wunderground v.1.15,2013-06-05 00:51:00,
2013-06-04 20:52:00,67.3,52.0,30.02,SSE,151,0.0,0.0,58,0.00,,,0.00,Wunderground v.1.15,2013-06-05 00:52:00,
2013-06-04 20:54:00,67.1,52.7,30.02,SSE,151,0.0,0.0,60,0.00,,,0.00,Wunderground v.1.15,2013-06-05 00:54:00,
2013-06-04 20:55:00,67.1,52.7,30.02,SSE,151,0.0,0.0,60,0.00,,,0.00,Wunderground v.1.15,2013-06-05 00:55:00,
2013-06-04 20:56:00,66.9,52.6,30.02,SSE,151,0.0,0.0,60,0.00,,,0.00,Wunderground v.1.15,2013-06-05 00:56:00,
2013-06-04 20:57:00,66.9,52.6,30.02,SSE,151,0.0,0.0,60,0.00,,,0.00,Wunderground v.1.15,2013-06-05 00:57:00,
2013-06-04 21:01:00,66.4,52.5,30.02,SW,217,0.0,0.0,61,0.00,,,0.00,Wunderground v.1.15,2013-06-05 01:01:00,
2013-06-04 21:02:00,66.3,52.4,30.02,SW,217,0.0,0.0,61,0.00,,,0.00,Wunderground v.1.15,2013-06-05 01:02:00,
2013-06-04 21:03:00,66.3,52.9,30.02,SW,217,0.0,0.0,62,0.00,,,0.00,Wunderground v.1.15,2013-06-05 01:03:00,
2013-06-04 21:08:00,65.5,52.6,30.02,SW,217,0.0,0.0,63,0.00,,,0.00,Wunderground v.1.15,2013-06-05 01:08:00,
2013-06-04 21:09:00,65.3,52.8,30.02,SW,217,0.0,0.0,64,0.00,,,0.00,Wunderground v.1.15,2013-06-05 01:09:00,
2013-06-04 21:10:00,65.3,52.8,30.02,SW,217,0.0,0.0,64,0.00,,,0.00,Wunderground v.1.15,2013-06-05 01:10:00,
2013-06-04 21:11:00,65.2,52.7,30.02,SW,217,0.0,0.0,64,0.00,,,0.00,Wunderground v.1.15,2013-06-05 01:11:00,
2013-06-04 21:15:00,64.8,52.8,30.03,SW,217,0.0,0.0,65,0.00,,,0.00,Wunderground v.1.15,2013-06-05 01:15:00,
2013-06-04 21:17:00,64.7,53.1,30.03,SW,217,0.0,0.0,66,0.00,,,0.00,Wunderground v.1.15,2013-06-05 01:17:00,
2013-06-04 21:20:00,64.3,52.7,30.03,SW,217,0.0,0.0,66,0.00,,,0.00,Wunderground v.1.15,2013-06-05 01:20:00,
2013-06-04 21:23:00,64.0,52.8,30.03,SW,217,0.0,0.0,67,0.00,,,0.00,Wunderground v.1.15,2013-06-05 01:23:00,
2013-06-04 21:24:00,64.0,52.8,30.03,SW,217,0.0,0.0,67,0.00,,,0.00,Wunderground v.1.15,2013-06-05 01:24:00,
2013-06-04 21:26:00,63.7,52.9,30.03,SW,217,0.0,0.0,68,0.00,,,0.00,Wunderground v.1.15,2013-06-05 01:26:00,
2013-06-04 21:29:00,63.5,53.1,30.03,SW,217,0.0,0.0,69,0.00,,,0.00,Wunderground v.1.15,2013-06-05 01:29:00,
2013-06-04 21:30:00,63.4,53.0,30.04,SW,217,0.0,0.0,69,0.00,,,0.00,Wunderground v.1.15,2013-06-05 01:30:00,
2013-06-04 21:31:00,63.4,53.0,30.04,SW,217,0.0,0.0,69,0.00,,,0.00,Wunderground v.1.15,2013-06-05 01:31:00,
2013-06-04 21:32:00,63.2,52.9,30.04,SW,217,0.0,0.0,69,0.00,,,0.00,Wunderground v.1.15,2013-06-05 01:32:00,
2013-06-04 21:35:00,63.1,52.8,30.04,SW,217,0.0,0.0,69,0.00,,,0.00,Wunderground v.1.15,2013-06-05 01:35:00,
2013-06-04 21:36:00,62.9,53.0,30.04,SW,217,0.0,0.0,70,0.00,,,0.00,Wunderground v.1.15,2013-06-05 01:36:00,
2013-06-04 21:38:00,62.7,52.8,30.04,SW,217,0.0,0.0,70,0.00,,,0.00,Wunderground v.1.15,2013-06-05 01:38:00,
2013-06-04 21:39:00,62.7,53.2,30.04,SW,217,0.0,0.0,71,0.00,,,0.00,Wunderground v.1.15,2013-06-05 01:39:00,
2013-06-04 21:41:00,62.6,53.1,30.04,SW,217,0.0,0.0,71,0.00,,,0.00,Wunderground v.1.15,2013-06-05 01:41:00,
2013-06-04 21:45:00,62.3,53.2,30.05,SW,217,0.0,0.0,72,0.00,,,0.00,Wunderground v.1.15,2013-06-05 01:45:00,
2013-06-04 21:46:00,62.3,53.2,30.05,SW,217,0.0,0.0,72,0.00,,,0.00,Wunderground v.1.15,2013-06-05 01:46:00,
2013-06-04 21:48:00,62.1,53.0,30.05,SW,217,0.0,0.0,72,0.00,,,0.00,Wunderground v.1.15,2013-06-05 01:48:00,
2013-06-04 21:51:00,62.0,53.2,30.05,SW,217,0.0,0.0,73,0.00,,,0.00,Wunderground v.1.15,2013-06-05 01:51:00,
2013-06-04 21:52:00,62.0,53.2,30.05,SW,217,0.0,0.0,73,0.00,,,0.00,Wunderground v.1.15,2013-06-05 01:52:00,
2013-06-04 21:57:00,61.6,53.2,30.05,SW,217,0.0,0.0,74,0.00,,,0.00,Wunderground v.1.15,2013-06-05 01:57:00,
2013-06-04 21:59:00,61.5,53.1,30.05,SW,217,0.0,0.0,74,0.00,,,0.00,Wunderground v.1.15,2013-06-05 01:59:00,
2013-06-04 22:00:00,61.5,53.1,30.05,SW,217,0.0,0.0,74,0.00,,,0.00,Wunderground v.1.15,2013-06-05 02:00:00,
2013-06-04 22:03:00,61.3,52.9,30.05,SW,217,0.0,0.0,74,0.00,,,0.00,Wunderground v.1.15,2013-06-05 02:03:00,
2013-06-04 22:05:00,61.2,52.8,30.05,SW,217,0.0,0.0,74,0.00,,,0.00,Wunderground v.1.15,2013-06-05 02:05:00,
2013-06-04 22:06:00,61.2,52.8,30.05,SW,217,0.0,0.0,74,0.00,,,0.00,Wunderground v.1.15,2013-06-05 02:06:00,
2013-06-04 22:07:00,61.0,52.7,30.05,SW,217,0.0,0.0,74,0.00,,,0.00,Wunderground v.1.15,2013-06-05 02:07:00,
2013-06-04 22:10:00,60.9,52.9,30.05,SW,217,0.0,0.0,75,0.00,,,0.00,Wunderground v.1.15,2013-06-05 02:10:00,
2013-06-04 22:11:00,60.9,52.9,30.05,SW,217,0.0,0.0,75,0.00,,,0.00,Wunderground v.1.15,2013-06-05 02:11:00,
2013-06-04 22:12:00,60.9,52.9,30.05,SW,217,0.0,0.0,75,0.00,,,0.00,Wunderground v.1.15,2013-06-05 02:12:00,
2013-06-04 22:15:00,60.7,52.7,30.06,SW,217,0.0,0.0,75,0.00,,,0.00,Wunderground v.1.15,2013-06-05 02:15:00,
2013-06-04 22:17:00,60.5,52.5,30.06,SW,217,0.0,0.0,75,0.00,,,0.00,Wunderground v.1.15,2013-06-05 02:17:00,
2013-06-04 22:18:00,60.5,52.5,30.06,SW,217,0.0,0.0,75,0.00,,,0.00,Wunderground v.1.15,2013-06-05 02:18:00,
2013-06-04 22:22:00,60.4,52.8,30.06,SW,217,0.0,0.0,76,0.00,,,0.00,Wunderground v.1.15,2013-06-05 02:22:00,
2013-06-04 22:23:00,60.2,52.6,30.06,SW,217,0.0,0.0,76,0.00,,,0.00,Wunderground v.1.15,2013-06-05 02:23:00,
2013-06-04 22:24:00,60.2,52.6,30.06,SW,217,0.0,0.0,76,0.00,,,0.00,Wunderground v.1.15,2013-06-05 02:24:00,
2013-06-04 22:29:00,59.9,52.7,30.06,SW,217,0.0,0.0,77,0.00,,,0.00,Wunderground v.1.15,2013-06-05 02:29:00,
2013-06-04 22:30:00,59.9,53.0,30.06,SW,217,0.0,0.0,78,0.00,,,0.00,Wunderground v.1.15,2013-06-05 02:30:00,
2013-06-04 22:31:00,59.9,53.0,30.06,SW,217,0.0,0.0,78,0.00,,,0.00,Wunderground v.1.15,2013-06-05 02:31:00,
2013-06-04 22:32:00,59.9,53.0,30.06,SW,217,0.0,0.0,78,0.00,,,0.00,Wunderground v.1.15,2013-06-05 02:32:00,
2013-06-04 22:34:00,59.8,52.9,30.06,SW,217,0.0,0.0,78,0.00,,,0.00,Wunderground v.1.15,2013-06-05 02:34:00,
2013-06-04 22:35:00,59.8,52.9,30.06,SW,217,0.0,0.0,78,0.00,,,0.00,Wunderground v.1.15,2013-06-05 02:35:00,
2013-06-04 22:37:00,59.6,53.1,30.06,SW,217,0.0,0.0,79,0.00,,,0.00,Wunderground v.1.15,2013-06-05 02:37:00,
2013-06-04 22:38:00,59.6,53.1,30.06,SW,217,0.0,0.0,79,0.00,,,0.00,Wunderground v.1.15,2013-06-05 02:38:00,
2013-06-04 22:40:00,59.5,53.0,30.06,SW,217,0.0,0.0,79,0.00,,,0.00,Wunderground v.1.15,2013-06-05 02:40:00,
2013-06-04 22:43:00,59.5,53.3,30.06,SW,217,0.0,0.0,80,0.00,,,0.00,Wunderground v.1.15,2013-06-05 02:43:00,
2013-06-04 22:45:00,59.3,53.1,30.07,SW,217,0.0,0.0,80,0.00,,,0.00,Wunderground v.1.15,2013-06-05 02:45:00,
2013-06-04 22:48:00,59.2,53.4,30.07,SW,217,0.0,0.0,81,0.00,,,0.00,Wunderground v.1.15,2013-06-05 02:48:00,
2013-06-04 22:49:00,59.2,53.4,30.07,SW,217,0.0,0.0,81,0.00,,,0.00,Wunderground v.1.15,2013-06-05 02:49:00,
2013-06-04 22:50:00,59.0,53.2,30.07,SW,217,0.0,0.0,81,0.00,,,0.00,Wunderground v.1.15,2013-06-05 02:50:00,
2013-06-04 22:52:00,59.0,53.2,30.07,SW,217,0.0,0.0,81,0.00,,,0.00,Wunderground v.1.15,2013-06-05 02:52:00,
2013-06-04 22:54:00,58.9,53.1,30.07,SW,217,0.0,0.0,81,0.00,,,0.00,Wunderground v.1.15,2013-06-05 02:54:00,
2013-06-04 22:55:00,58.9,53.1,30.07,SW,217,0.0,0.0,81,0.00,,,0.00,Wunderground v.1.15,2013-06-05 02:55:00,
2013-06-04 22:57:00,58.9,53.1,30.07,SW,217,0.0,0.0,81,0.00,,,0.00,Wunderground v.1.15,2013-06-05 02:57:00,
2013-06-04 22:58:00,58.9,53.1,30.07,SW,217,0.0,0.0,81,0.00,,,0.00,Wunderground v.1.15,2013-06-05 02:58:00,
2013-06-04 23:00:00,58.7,52.9,30.07,SW,217,0.0,0.0,81,0.00,,,0.00,Wunderground v.1.15,2013-06-05 03:00:00,
2013-06-04 23:01:00,58.7,52.9,30.07,SW,217,0.0,0.0,81,0.00,,,0.00,Wunderground v.1.15,2013-06-05 03:01:00,
2013-06-04 23:03:00,58.9,53.1,30.07,SW,217,0.0,0.0,81,0.00,,,0.00,Wunderground v.1.15,2013-06-05 03:03:00,
2013-06-04 23:05:00,58.9,53.1,30.07,SW,217,0.0,0.0,81,0.00,,,0.00,Wunderground v.1.15,2013-06-05 03:05:00,
2013-06-04 23:06:00,58.9,53.1,30.07,SW,217,0.0,0.0,81,0.00,,,0.00,Wunderground v.1.15,2013-06-05 03:06:00,
2013-06-04 23:08:00,58.9,53.1,30.07,SW,217,0.0,0.0,81,0.00,,,0.00,Wunderground v.1.15,2013-06-05 03:08:00,
2013-06-04 23:09:00,58.9,53.1,30.07,SW,217,0.0,0.0,81,0.00,,,0.00,Wunderground v.1.15,2013-06-05 03:09:00,
2013-06-04 23:10:00,59.0,53.2,30.07,SW,217,0.0,0.0,81,0.00,,,0.00,Wunderground v.1.15,2013-06-05 03:10:00,
2013-06-04 23:12:00,59.0,53.2,30.07,SW,217,0.0,0.0,81,0.00,,,0.00,Wunderground v.1.15,2013-06-05 03:12:00,
2013-06-04 23:14:00,59.0,53.2,30.07,SW,217,0.0,0.0,81,0.00,,,0.00,Wunderground v.1.15,2013-06-05 03:14:00,
2013-06-04 23:17:00,59.0,53.2,30.07,SW,217,0.0,0.0,81,0.00,,,0.00,Wunderground v.1.15,2013-06-05 03:17:00,
2013-06-04 23:20:00,59.0,53.2,30.07,SW,217,0.0,0.0,81,0.00,,,0.00,Wunderground v.1.15,2013-06-05 03:20:00,
2013-06-04 23:21:00,59.2,53.4,30.07,SW,217,0.0,0.0,81,0.00,,,0.00,Wunderground v.1.15,2013-06-05 03:21:00,
2013-06-04 23:23:00,59.2,53.4,30.07,SW,217,0.0,0.0,81,0.00,,,0.00,Wunderground v.1.15,2013-06-05 03:23:00,
2013-06-04 23:24:00,59.2,53.4,30.07,SW,217,0.0,0.0,81,0.00,,,0.00,Wunderground v.1.15,2013-06-05 03:24:00,
2013-06-04 23:27:00,59.2,53.4,30.07,SW,217,0.0,0.0,81,0.00,,,0.00,Wunderground v.1.15,2013-06-05 03:27:00,
2013-06-04 23:28:00,59.2,53.0,30.07,SW,217,0.0,0.0,80,0.00,,,0.00,Wunderground v.1.15,2013-06-05 03:28:00,
2013-06-04 23:29:00,59.2,53.0,30.07,SW,217,0.0,0.0,80,0.00,,,0.00,Wunderground v.1.15,2013-06-05 03:29:00,
2013-06-04 23:30:00,59.3,53.1,30.07,SW,217,0.0,0.0,80,0.00,,,0.00,Wunderground v.1.15,2013-06-05 03:30:00,
2013-06-04 23:32:00,59.3,53.1,30.07,SW,217,0.0,0.0,80,0.00,,,0.00,Wunderground v.1.15,2013-06-05 03:32:00,
2013-06-04 23:36:00,59.5,53.3,30.07,SW,217,0.0,0.0,80,0.00,,,0.00,Wunderground v.1.15,2013-06-05 03:36:00,
2013-06-04 23:37:00,59.5,53.3,30.07,SW,217,0.0,0.0,80,0.00,,,0.00,Wunderground v.1.15,2013-06-05 03:37:00,
2013-06-04 23:39:00,59.5,53.3,30.07,SW,217,0.0,0.0,80,0.00,,,0.00,Wunderground v.1.15,2013-06-05 03:39:00,
2013-06-04 23:40:00,59.5,53.3,30.07,SW,217,0.0,0.0,80,0.00,,,0.00,Wunderground v.1.15,2013-06-05 03:40:00,
2013-06-04 23:41:00,59.6,53.1,30.07,SW,217,0.0,0.0,79,0.00,,,0.00,Wunderground v.1.15,2013-06-05 03:41:00,
2013-06-04 23:42:00,59.6,53.1,30.07,SW,217,0.0,0.0,79,0.00,,,0.00,Wunderground v.1.15,2013-06-05 03:42:00,
2013-06-04 23:48:00,59.8,52.9,30.06,SW,217,0.0,0.0,78,0.00,,,0.00,Wunderground v.1.15,2013-06-05 03:48:00,
2013-06-04 23:49:00,59.8,52.9,30.06,SW,217,0.0,0.0,78,0.00,,,0.00,Wunderground v.1.15,2013-06-05 03:49:00,
2013-06-04 23:50:00,59.8,52.9,30.06,SW,217,0.0,0.0,78,0.00,,,0.00,Wunderground v.1.15,2013-06-05 03:50:00,
2013-06-04 23:52:00,59.8,52.9,30.06,SW,217,0.0,0.0,78,0.00,,,0.00,Wunderground v.1.15,2013-06-05 03:52:00,
2013-06-04 23:54:00,59.9,53.0,30.06,SW,217,0.0,0.0,78,0.00,,,0.00,Wunderground v.1.15,2013-06-05 03:54:00,
2013-06-04 23:56:00,59.9,53.0,30.06,SW,217,0.0,0.0,78,0.00,,,0.00,Wunderground v.1.15,2013-06-05 03:56:00,
2013-06-04 23:58:00,59.9,52.7,30.06,SW,217,0.0,0.0,77,0.00,,,0.00,Wunderground v.1.15,2013-06-05 03:58:00,
2013-06-04 23:59:00,59.9,52.7,30.06,SW,217,0.0,0.0,77,0.00,,,0.00,Wunderground v.1.15,2013-06-05 03:59:00,